GFSGL_sfc_wetblb_132.txt.gz
Wetbulb
53.41 53.48 53.27 53.21 53.39 53.73 53.08 51.94 51.69 51.73 51.81 51.52 51.39 51.06 50.69 50.33 50.06 49.49 49.21 48.84 48.64 47.51 46.47 47.20 44.72 44.08 42.94 42.71 42.34 41.69 40.56 40.72 39.42 38.25 37.77 35.81 36.02 36.96 37.78 37.58 39.15 38.18 38.53
52.37 52.48 52.28 52.34 52.17 51.64 51.32 51.66 51.75 50.96 51.23 51.15 50.99 50.59 50.15 49.93 49.73 49.23 48.32 47.68 47.09 44.77 44.98 44.36 43.06 44.00 41.41 41.18 40.57 39.23 38.57 37.71 37.11 33.08 33.17 34.46 34.91 35.44 35.83 36.35 38.57 40.54 38.67
49.06 49.83 50.26 50.41 50.18 50.04 49.97 50.17 50.24 49.89 49.52 49.28 48.75 46.80 45.54 45.91 45.55 45.37 45.09 44.27 43.20 42.34 42.06 42.26 41.32 40.38 38.90 38.81 38.21 37.76 35.95 36.78 34.11 33.51 33.10 34.07 34.81 35.35 35.99 36.45 36.94 36.75 39.49
45.05 44.42 43.78 45.33 46.35 46.34 45.55 45.09 45.15 45.01 44.19 43.09 42.63 42.14 41.69 41.12 40.94 40.93 40.77 40.25 39.88 39.78 39.96 39.83 39.35 38.99 37.80 36.23 36.18 35.48 36.06 35.15 34.25 33.83 33.34 33.52 34.11 35.23 34.65 34.19 33.21 34.81 35.13
39.82 39.59 37.89 39.03 41.29 42.14 42.25 42.07 42.18 42.06 41.75 41.82 41.42 41.16 41.26 41.18 39.98 38.39 37.98 37.70 36.93 36.28 37.34 38.75 37.54 40.16 43.33 40.89 37.98 36.16 34.98 33.70 33.14 32.61 32.27 32.52 32.69 32.78 32.23 32.74 32.48 32.84 33.39
36.80 35.93 36.37 36.21 36.17 36.72 37.80 37.69 38.29 38.35 38.65 39.41 38.98 39.64 40.03 42.06 45.22 43.55 37.39 34.61 35.09 34.92 35.06 36.07 36.95 39.32 43.20 45.63 45.55 43.49 38.62 34.13 32.68 32.60 32.23 31.52 30.70 30.80 31.33 31.32 31.29 31.07 34.40
35.71 35.29 35.36 35.30 35.10 35.11 35.96 36.43 35.79 35.51 36.11 36.11 36.60 37.33 38.23 39.71 44.55 43.30 40.49 32.56 32.10 31.99 32.33 33.02 34.58 37.68 37.45 35.66 42.18 42.78 40.51 41.58 40.11 33.70 31.39 30.32 30.66 32.39 32.63 32.97 36.43 37.48 36.86
34.64 34.57 34.60 34.46 34.00 34.01 34.04 33.48 33.28 33.80 34.06 34.12 34.40 35.12 36.88 39.84 43.48 42.50 40.09 31.16 30.58 30.89 31.61 31.45 31.39 31.56 32.97 35.62 34.17 33.63 33.55 33.68 35.79 37.14 34.14 34.82 34.81 38.61 37.98 38.54 38.31 37.02 36.50
34.17 34.02 34.24 34.20 33.44 33.28 32.49 31.83 31.56 32.53 32.87 33.03 33.19 33.31 34.31 36.23 42.08 40.64 34.69 30.57 30.41 30.53 31.94 32.24 32.60 31.78 38.29 42.06 34.74 33.56 33.86 35.74 40.13 41.73 40.78 40.91 40.99 40.32 39.29 34.08 30.93 31.69 31.33
34.30 34.49 34.38 34.26 33.78 33.09 32.22 31.62 30.59 30.54 31.94 33.42 31.76 31.77 38.77 33.61 41.62 40.04 34.66 31.61 30.21 31.21 31.36 32.52 38.76 37.31 41.83 43.00 40.21 38.57 35.24 34.21 34.85 34.21 31.85 32.58 33.99 33.78 38.05 32.48 30.94 29.45 29.30
35.19 34.85 34.53 34.17 33.90 33.08 31.55 30.50 29.59 29.40 30.03 28.50 28.83 29.11 30.15 32.67 33.64 40.80 40.03 32.64 32.36 31.88 31.71 31.93 33.18 40.76 41.65 41.52 40.61 37.26 37.47 35.31 34.01 29.99 29.72 29.75 30.08 30.54 30.87 31.19 31.10 30.76 30.95
34.94 34.83 34.10 33.31 35.33 33.51 30.88 28.98 28.73 28.08 27.39 27.02 27.42 27.68 28.77 29.69 38.08 39.44 40.15 39.73 39.26 34.93 33.22 33.76 35.08 40.15 40.32 40.20 38.39 39.28 39.16 35.38 30.50 29.96 32.23 32.41 32.48 32.52 32.11 31.08 30.75 31.26 31.45
34.27 33.78 33.34 33.26 32.69 30.94 29.45 27.96 27.59 27.48 27.52 27.09 28.07 27.86 28.58 29.70 30.41 39.99 39.79 40.03 40.44 36.23 36.53 37.94 38.86 38.81 38.04 35.76 38.17 37.57 36.81 31.12 33.44 32.47 32.07 32.47 33.16 33.98 32.95 30.99 31.44 31.31 30.77
34.05 33.01 32.68 32.17 30.80 29.29 29.64 29.01 28.16 27.69 26.94 28.29 28.50 28.06 27.65 28.85 29.18 29.87 31.95 32.63 38.50 36.40 37.15 35.12 36.03 36.78 36.50 35.01 33.42 35.38 35.63 34.89 35.01 34.27 33.59 34.51 34.97 34.59 34.08 32.67 30.45 32.40 31.89
34.27 33.44 32.85 32.81 31.54 28.17 28.62 28.74 29.02 27.95 29.73 28.40 28.23 28.91 27.99 27.59 29.34 33.86 35.30 35.85 36.77 36.87 35.91 33.17 31.45 30.44 31.81 32.76 33.85 34.49 35.21 35.79 35.69 35.92 35.80 35.61 35.63 35.79 35.22 35.87 33.83 33.45 31.71
34.15 33.39 33.04 32.49 29.52 28.34 27.81 28.18 36.25 35.12 37.80 37.59 36.62 32.15 30.19 34.57 37.03 38.57 38.75 39.42 37.66 37.35 34.74 31.30 30.42 30.69 31.21 31.98 32.31 32.81 34.08 34.72 35.01 35.70 35.90 35.73 35.22 34.85 33.80 35.21 35.40 33.73 31.89
36.29 34.47 34.33 32.80 30.20 28.04 27.53 28.28 28.43 33.63 38.71 38.26 38.26 37.63 36.61 36.23 37.69 37.20 37.80 38.13 36.87 35.92 31.43 30.67 30.73 31.80 32.20 32.74 32.66 33.28 33.29 34.40 35.10 34.76 34.33 34.04 34.58 34.36 33.88 33.07 32.99 33.66 32.14
37.08 38.86 34.54 31.57 30.95 28.86 28.28 28.28 28.97 30.69 30.37 30.69 37.54 36.93 37.82 37.18 36.54 36.58 36.79 36.61 31.94 32.72 31.61 31.60 31.94 32.72 33.00 33.11 33.89 34.14 33.76 33.77 33.53 32.00 33.61 33.67 33.72 33.75 32.85 32.00 32.39 32.72 32.83
36.20 36.40 34.00 31.66 30.83 30.71 28.68 28.35 29.89 30.57 30.67 29.97 30.76 35.81 36.33 37.65 36.44 35.90 36.92 32.00 31.23 31.07 31.95 32.28 33.34 34.01 34.71 34.88 33.95 33.57 34.60 34.39 34.96 35.07 35.53 33.81 34.38 32.55 31.79 32.34 32.77 35.10 33.63
36.68 38.86 34.93 31.57 31.39 29.76 28.68 28.61 29.47 30.00 29.68 29.80 29.74 30.19 29.96 32.41 29.41 28.84 30.03 30.48 31.38 31.46 31.57 34.02 33.38 33.20 33.43 33.80 34.07 34.45 34.30 34.58 34.80 32.95 32.94 33.09 33.18 32.73 32.38 33.66 33.52 30.80 31.71
36.50 37.19 36.29 31.85 31.77 30.27 29.56 28.97 29.22 29.66 29.23 28.87 29.20 30.81 34.36 29.10 28.54 28.25 27.79 28.11 30.93 31.29 31.25 32.26 32.44 32.72 32.77 32.69 32.59 32.29 31.95 32.09 32.57 32.66 32.57 32.85 33.08 32.71 34.30 34.48 32.04 32.10 32.87
36.52 36.20 33.79 32.28 31.82 30.36 30.18 29.76 29.58 29.46 28.90 28.51 28.13 29.88 35.94 30.39 28.45 27.81 27.87 27.78 30.41 32.50 33.71 33.45 33.31 33.58 32.85 32.55 32.25 32.04 31.71 31.79 32.24 32.52 32.65 32.75 33.15 33.95 34.13 33.14 32.89 33.07 32.83
36.38 35.11 32.93 32.39 32.17 33.08 31.43 29.78 29.50 29.86 29.54 29.05 28.74 28.84 30.04 29.13 28.13 27.82 28.10 27.19 27.33 28.28 32.21 33.35 33.70 30.93 29.45 30.17 33.12 33.51 32.49 32.48 33.60 34.10 33.27 33.57 32.65 32.43 32.42 31.85 31.69 31.32 30.08
36.06 34.44 32.97 31.80 31.93 31.35 30.46 29.93 30.51 31.15 30.00 29.48 28.98 28.99 28.87 28.65 27.38 27.76 27.08 26.10 26.02 26.08 25.14 28.44 28.38 27.45 30.71 32.36 33.43 34.12 34.38 34.38 34.83 34.78 34.27 32.91 31.87 31.69 31.59 31.56 31.51 31.58 31.53
34.82 33.50 32.54 31.90 32.63 31.20 31.37 30.69 30.72 30.61 30.18 29.70 28.99 28.96 28.20 27.96 27.38 27.86 26.31 25.26 26.29 28.20 27.93 25.50 26.58 29.57 30.88 30.81 30.75 30.75 32.07 34.17 33.73 34.89 34.26 33.86 32.78 32.91 32.88 32.73 32.79 32.83 32.80
33.54 32.79 32.20 32.80 32.04 31.71 31.65 30.97 30.56 30.51 29.72 29.27 28.72 27.68 27.07 26.43 26.53 26.00 26.13 26.38 26.53 28.14 25.97 25.77 26.91 28.65 28.90 29.45 30.16 32.10 33.12 33.41 33.28 35.60 34.86 34.11 33.66 33.54 33.42 33.09 33.81 33.14 33.27

GFSGL_sfc_wetblb_135.txt.gz
Wetbulb
54.14 55.02 55.20 54.93 54.84 54.35 53.51 52.80 52.53 52.59 52.40 51.87 51.78 51.54 51.21 50.80 50.79 50.50 50.14 50.05 49.77 48.74 48.47 49.15 47.72 45.88 44.74 44.56 44.63 44.17 42.93 43.48 42.69 39.61 41.31 41.83 42.90 44.84 45.78 46.21 45.95 46.10 45.94
52.68 52.55 52.61 53.18 53.95 53.06 52.40 51.83 52.41 51.91 52.06 51.67 51.41 50.99 50.66 50.68 50.95 50.67 49.94 49.55 49.44 47.51 47.19 45.81 44.46 44.43 42.62 42.82 42.08 40.51 40.44 40.24 41.38 39.23 39.13 41.80 43.83 43.65 43.55 43.93 43.44 43.96 43.78
51.45 51.23 50.97 50.83 50.77 50.83 51.18 51.55 51.88 51.06 50.92 50.83 49.80 48.36 48.11 47.82 47.29 47.12 47.19 46.31 45.42 45.15 45.57 44.79 43.19 42.16 40.58 40.57 41.05 40.69 40.36 40.46 40.52 41.22 41.60 42.20 42.08 42.64 42.21 42.54 42.29 42.17 42.80
48.60 48.30 48.01 47.89 47.56 47.24 47.27 47.10 46.96 46.66 45.38 44.43 43.89 42.98 42.46 42.26 42.80 43.13 42.61 42.03 42.53 42.25 41.96 42.55 42.76 42.52 40.42 40.61 40.52 40.40 41.08 41.00 41.13 40.56 39.62 40.17 40.77 41.66 41.07 39.28 38.89 41.02 40.64
45.62 45.02 43.84 44.08 45.13 45.01 44.51 44.77 44.65 44.30 43.75 43.37 42.73 42.57 42.50 41.69 41.05 40.54 41.02 41.12 41.43 41.55 42.05 41.36 41.51 43.33 44.56 43.92 42.90 42.08 41.81 40.57 40.02 39.43 39.52 38.88 38.99 38.42 37.62 39.45 38.07 39.74 41.48
44.99 43.96 43.89 44.17 44.50 43.50 43.27 43.03 42.85 42.49 42.81 43.08 42.93 43.36 43.73 44.24 45.60 43.78 41.43 40.32 40.33 41.26 40.92 41.31 42.36 44.83 47.00 47.11 45.62 43.67 42.60 41.03 39.78 40.06 39.45 38.40 37.67 38.20 39.65 39.46 39.04 38.79 36.74
42.17 42.04 42.36 43.00 42.13 41.70 42.01 42.18 41.84 41.58 42.44 42.28 42.51 42.98 43.03 43.75 44.98 43.80 41.06 38.71 38.41 38.94 39.45 40.13 39.72 40.94 41.62 42.69 45.50 44.12 42.48 42.25 41.66 41.07 38.74 38.42 37.51 40.06 39.52 39.22 39.17 38.76 37.87
40.25 39.94 40.45 40.93 40.13 40.34 40.65 40.38 40.40 41.22 41.08 41.40 41.78 42.32 42.47 42.69 43.83 42.77 40.23 37.84 38.05 38.00 38.20 38.51 38.66 38.72 39.77 40.80 40.35 39.96 39.79 40.23 41.41 41.48 39.98 39.53 40.07 40.74 40.70 39.76 39.18 38.20 38.57
39.18 39.33 39.60 40.01 39.27 39.26 38.96 38.90 39.08 39.60 39.58 39.86 41.13 41.30 41.04 41.39 42.26 40.88 38.05 37.51 37.12 37.08 37.76 39.10 39.03 39.02 39.48 42.14 40.06 39.35 39.10 39.84 41.30 41.48 40.47 39.88 39.61 39.38 40.15 39.08 36.64 35.11 34.13
39.13 39.21 39.33 39.47 39.06 38.62 38.24 37.95 38.04 39.31 38.54 38.53 38.39 40.08 42.00 40.80 41.46 40.34 38.00 37.69 37.02 37.11 37.64 37.99 39.67 41.05 41.98 43.00 40.77 39.46 38.10 37.05 38.06 37.69 37.71 37.46 37.07 37.18 37.15 37.09 36.49 33.48 32.23
39.62 39.16 38.80 39.07 38.72 38.39 37.60 37.41 37.02 37.94 37.18 36.58 36.76 37.49 38.16 39.77 41.41 41.34 39.89 38.39 37.79 37.15 37.35 37.90 39.30 41.15 41.76 42.25 40.50 40.15 39.05 37.14 36.29 37.03 37.20 37.26 36.95 36.86 37.07 37.28 37.25 35.51 32.33
39.19 38.74 38.51 38.48 38.46 37.30 37.26 35.86 35.88 36.18 34.96 34.40 35.16 35.22 36.31 37.25 39.53 40.82 41.22 40.47 40.18 38.12 37.65 38.16 39.26 40.21 40.33 40.20 39.31 39.98 39.58 36.93 37.14 36.95 35.68 34.90 35.07 35.79 37.31 37.85 37.60 37.43 37.59
38.68 38.39 38.17 38.05 38.01 37.11 36.38 34.85 34.22 34.75 34.45 33.76 34.28 34.59 34.96 36.25 38.62 40.86 40.56 40.00 40.86 39.15 38.61 38.65 38.53 38.48 38.19 37.31 38.46 38.21 37.80 37.03 35.86 34.56 33.82 34.29 35.51 36.58 36.88 36.65 38.15 38.19 37.83
38.59 37.96 37.58 37.47 36.66 36.24 36.03 35.49 34.71 34.05 33.75 33.86 33.88 33.86 34.36 35.10 36.34 37.05 37.38 38.60 38.97 38.51 37.92 37.26 37.14 36.61 36.73 36.94 36.98 36.87 36.74 36.42 35.81 36.10 35.08 36.13 37.14 36.94 36.52 37.48 36.28 36.70 36.19
38.72 37.78 37.29 37.45 36.64 35.05 35.49 34.93 34.86 35.36 35.77 34.65 34.84 34.98 33.87 33.73 34.99 36.62 37.36 37.92 39.34 37.89 37.63 35.21 34.04 34.13 33.60 34.50 34.97 35.39 36.07 36.01 36.00 36.23 35.69 35.79 35.97 36.35 35.91 36.77 36.30 36.01 34.45
37.97 37.44 36.90 36.93 35.21 34.72 34.02 33.55 36.49 36.18 37.93 37.84 37.31 36.06 35.07 36.09 37.67 39.06 39.70 40.11 38.85 38.22 36.68 33.85 32.53 32.64 32.30 32.97 33.25 33.55 34.72 35.18 35.74 35.65 35.52 35.50 34.93 34.45 34.36 35.38 35.26 34.18 33.42
39.23 37.95 37.85 37.32 35.33 33.83 33.31 33.58 33.30 36.87 39.43 39.52 39.44 38.66 37.31 37.89 39.15 38.61 38.52 39.10 38.12 37.40 34.86 33.09 32.37 32.73 33.09 33.52 33.65 33.77 33.72 34.90 35.54 34.69 34.41 34.62 34.75 34.61 34.55 33.84 33.82 33.33 33.12
40.06 40.04 38.11 36.34 36.01 34.45 33.81 33.68 34.32 34.91 34.73 35.60 38.95 38.62 38.64 38.72 38.39 37.60 37.02 37.90 35.21 35.14 34.30 33.29 32.78 33.23 33.67 33.87 34.38 34.70 35.41 34.98 34.70 34.60 34.97 35.09 35.93 34.66 34.30 33.26 33.57 32.96 33.09
39.33 39.66 38.52 37.08 36.50 35.46 34.19 33.38 33.87 34.15 34.36 34.76 35.82 38.22 39.03 38.46 37.62 36.63 37.14 34.91 33.63 33.18 33.62 33.63 34.26 34.45 34.75 35.35 34.99 35.08 35.81 34.92 35.15 34.97 35.53 34.74 34.52 34.02 33.06 33.21 32.93 34.26 35.12
39.96 40.52 38.32 36.34 35.54 34.19 33.48 33.02 33.17 33.68 33.67 34.06 34.65 35.62 35.87 36.31 34.92 33.42 34.65 33.94 33.40 33.58 33.62 33.57 34.83 34.44 34.03 34.13 33.92 33.83 33.46 33.32 32.95 33.19 33.71 33.85 33.72 33.76 33.28 33.35 33.55 33.50 33.27
39.29 39.66 38.55 35.58 35.13 33.94 33.53 33.30 33.56 33.57 33.29 33.57 34.33 34.99 36.11 34.43 33.79 33.04 32.51 32.85 33.24 33.34 33.43 33.62 34.04 34.28 34.32 34.06 33.49 32.79 32.21 32.18 32.61 32.76 32.81 33.04 33.64 33.17 33.82 34.11 34.62 34.08 33.38
39.06 39.05 36.69 35.20 35.08 33.61 33.55 33.53 33.19 32.94 32.64 32.68 32.78 33.23 37.24 35.58 33.18 32.64 32.33 32.64 33.43 34.31 35.04 33.69 32.95 33.84 35.02 34.19 33.59 32.95 32.19 32.07 32.82 33.20 33.42 33.80 33.53 33.31 33.35 32.96 33.12 32.89 32.87
38.87 37.98 35.78 35.48 34.96 35.02 33.89 33.11 32.75 32.32 31.77 32.06 32.25 31.79 34.19 34.30 32.91 32.40 32.29 32.66 33.42 33.63 34.30 34.45 33.04 33.34 33.39 33.12 33.24 33.62 32.81 32.64 33.25 34.10 33.65 33.75 33.38 32.32 32.80 32.47 32.36 32.04 31.62
38.38 37.52 35.65 34.55 34.03 33.96 32.99 32.85 32.36 32.42 31.83 31.77 31.62 31.45 32.32 33.54 33.10 32.43 32.30 32.68 32.72 32.86 33.12 33.13 33.33 32.09 32.17 32.51 33.50 34.34 34.95 34.58 34.02 33.64 33.34 33.55 32.97 33.17 32.91 32.59 32.52 32.47 32.63
37.63 36.40 34.93 34.11 34.51 33.34 33.38 32.58 32.31 32.11 31.94 31.85 31.35 31.51 31.88 32.30 32.13 31.72 31.91 32.27 32.31 31.69 32.02 32.14 31.96 31.70 31.71 32.12 32.79 33.17 33.35 33.46 33.72 33.96 34.37 34.10 33.42 33.41 33.38 33.17 32.96 32.71 33.36
36.20 35.25 34.47 34.88 33.86 33.95 33.24 32.49 32.43 32.62 32.22 31.81 31.66 31.61 31.64 31.46 31.41 31.37 31.64 31.44 31.24 31.65 30.96 31.50 31.62 31.42 31.58 32.19 32.49 32.54 33.26 33.47 33.84 35.05 35.35 34.68 33.50 32.25 32.46 32.51 32.44 32.69 31.98

GFSGL_sfc_wetblb_138.txt.gz
Wetbulb
55.53 55.52 55.91 56.46 56.42 55.60 54.92 53.97 53.49 52.81 52.33 52.11 51.93 51.60 51.35 51.13 51.56 51.12 50.84 50.72 50.07 49.79 50.21 50.32 48.90 48.67 47.34 47.19 47.09 46.58 45.51 46.59 43.96 40.09 42.02 43.98 45.94 46.11 47.03 47.36 47.91 47.87 47.81
54.32 54.67 54.03 53.82 54.34 54.15 53.14 53.77 53.90 52.86 53.12 52.43 52.34 51.51 51.17 51.28 51.53 51.21 50.74 51.11 50.45 49.15 48.62 47.95 45.74 45.51 44.22 44.27 43.78 42.22 41.84 42.53 42.71 39.81 40.80 42.48 43.84 44.88 46.04 45.94 45.50 45.70 45.56
52.48 52.03 52.86 51.87 51.20 51.77 52.56 52.90 53.63 53.40 52.86 52.85 52.59 52.12 52.14 51.88 51.25 50.81 50.32 50.53 49.61 48.53 47.68 46.14 44.32 43.48 41.98 42.17 42.11 42.51 41.88 42.23 43.33 42.64 41.56 44.79 45.02 45.15 43.64 43.74 43.41 43.61 44.06
52.27 51.17 49.70 48.93 48.77 49.24 48.85 49.88 51.16 51.07 51.13 49.70 47.81 47.11 46.27 46.45 46.04 46.48 44.97 43.79 43.11 43.71 43.83 43.69 43.35 42.69 41.85 42.43 42.32 42.54 42.84 42.82 43.04 42.77 42.03 42.27 42.65 43.26 42.63 40.89 41.10 43.54 43.31
50.68 47.72 45.92 46.36 46.66 46.84 46.56 46.22 46.21 45.45 45.15 44.58 43.99 43.54 43.40 43.17 42.91 42.71 42.84 42.57 42.10 41.81 42.32 42.81 43.39 44.45 45.64 44.63 43.77 43.78 44.10 43.06 42.86 42.20 41.51 41.27 41.41 41.19 39.91 41.86 41.33 42.52 44.16
48.29 46.61 46.93 47.52 48.84 49.35 49.57 49.67 48.22 47.23 46.90 46.43 45.59 45.57 45.05 44.78 46.24 45.40 44.45 44.36 44.73 44.50 44.70 46.32 47.62 48.13 47.50 46.86 46.22 45.14 45.00 43.66 42.58 41.87 41.38 40.31 40.47 41.60 42.08 40.75 40.29 40.39 39.16
51.55 50.65 50.90 50.88 49.90 49.51 49.06 48.06 47.27 46.98 47.08 46.29 45.99 45.93 45.52 45.48 45.92 45.18 44.44 44.32 44.64 44.75 44.89 44.90 44.05 44.27 45.91 47.05 46.55 45.11 43.90 42.85 42.62 42.82 41.05 41.40 39.95 39.89 39.56 38.84 40.85 40.53 39.73
49.92 49.90 50.18 49.39 48.19 48.37 48.05 47.05 46.82 46.87 46.12 45.61 45.16 45.30 45.03 44.39 44.22 43.57 43.08 43.19 43.09 42.88 43.14 43.30 43.25 43.03 43.56 43.46 43.48 42.48 42.39 42.89 43.51 43.02 42.26 40.92 40.66 41.43 40.16 40.45 40.60 40.31 41.19
47.43 47.68 47.95 47.55 46.48 46.20 45.63 45.47 45.65 45.29 44.97 44.53 44.55 44.27 43.82 43.10 42.54 41.83 41.94 42.04 41.49 41.34 41.89 42.49 42.25 42.12 40.61 42.27 42.16 41.34 41.31 42.08 43.29 42.16 40.97 39.92 39.28 39.15 39.92 40.16 39.54 37.72 37.62
46.21 45.98 46.41 46.22 45.68 45.11 45.04 44.42 44.64 44.45 43.72 43.93 43.46 43.86 43.04 42.17 41.48 40.74 41.13 41.34 40.39 40.46 40.76 40.80 40.56 42.39 42.08 42.91 42.92 41.31 39.90 39.99 39.79 39.79 39.95 40.17 39.29 39.43 37.43 39.90 39.38 36.93 35.65
46.28 45.65 45.38 45.60 45.18 44.91 44.28 43.96 43.78 43.09 42.54 42.36 42.32 43.00 42.95 43.06 42.16 41.34 40.45 41.81 41.21 40.72 40.82 40.84 41.86 41.18 42.51 42.75 40.94 41.45 40.95 40.60 38.55 39.29 39.70 39.47 40.35 40.48 40.89 40.71 40.24 39.20 36.33
45.53 44.61 44.38 44.52 43.48 43.24 43.25 43.03 43.04 42.34 41.12 40.83 40.68 40.61 41.50 42.29 41.84 42.62 41.85 41.27 40.60 40.96 40.19 40.82 40.85 40.58 40.96 40.52 40.17 41.52 40.51 38.71 38.63 37.79 37.31 36.76 37.59 38.39 39.04 39.47 39.88 40.10 40.15
44.68 44.26 43.96 43.73 43.11 43.28 42.69 41.83 41.59 41.57 40.40 39.62 39.48 39.34 39.32 40.22 41.56 41.46 41.69 41.04 41.17 41.05 41.08 39.79 38.78 38.50 37.99 37.97 37.90 39.15 38.50 37.54 36.15 34.96 34.74 35.71 37.03 38.25 38.91 38.99 38.66 38.76 38.70
44.45 44.12 43.69 42.92 42.70 42.85 42.91 42.25 41.37 40.60 39.94 39.13 38.90 38.58 38.90 39.23 40.59 42.07 41.31 41.17 40.77 40.39 39.77 39.49 38.48 37.28 37.06 37.42 37.89 38.69 37.77 36.80 35.90 36.06 36.23 37.44 38.29 38.12 37.03 37.83 37.12 37.60 36.59
44.87 44.14 43.25 43.09 42.46 42.07 42.29 41.84 41.44 42.01 41.28 39.59 39.58 39.47 38.31 38.00 39.19 40.52 40.08 39.70 40.92 40.37 39.41 38.88 36.94 36.48 35.89 35.47 35.57 36.16 37.07 36.93 36.16 36.64 35.81 35.89 36.57 36.86 36.40 37.22 36.92 36.41 34.61
44.41 43.66 43.19 42.78 42.71 41.99 41.25 39.34 38.11 39.29 39.39 39.09 40.20 40.42 39.52 38.82 39.40 39.53 39.28 39.71 39.77 39.30 38.26 36.35 36.09 35.86 34.99 34.43 34.70 34.79 35.53 35.34 36.00 36.55 36.22 35.95 35.49 35.49 34.89 34.71 35.28 34.72 33.13
44.86 44.21 43.93 43.06 42.44 41.11 40.60 39.63 38.03 37.70 39.48 39.66 39.79 39.52 39.03 38.90 39.22 39.53 40.18 39.64 39.78 38.47 36.62 36.17 35.63 35.40 34.50 34.74 34.89 34.92 34.31 35.66 36.50 35.95 35.37 34.94 35.20 35.17 35.07 34.86 33.95 33.75 33.16
46.11 44.87 44.35 43.48 42.58 41.32 40.43 39.67 39.80 38.13 37.46 38.25 40.04 39.86 39.07 39.04 39.65 39.35 39.18 38.31 36.70 36.62 36.51 35.84 34.92 34.93 34.68 34.89 35.13 35.09 35.61 36.05 36.06 35.93 35.85 35.60 36.02 35.70 34.50 33.77 33.73 33.18 32.78
46.10 45.04 44.64 44.24 43.25 42.00 40.83 40.21 39.81 39.40 39.40 38.85 38.90 38.87 39.41 39.37 39.42 38.60 37.85 37.65 36.71 36.34 36.11 35.34 35.56 35.56 35.55 35.61 35.29 35.21 35.09 35.75 35.60 35.32 35.57 35.62 35.27 34.68 33.83 33.97 34.16 34.11 34.54
46.12 44.95 44.52 44.33 42.72 41.21 40.53 39.29 38.75 38.66 38.26 37.75 37.60 37.95 38.76 38.36 36.81 36.76 37.48 37.67 36.70 36.14 36.01 35.16 35.82 35.70 35.61 35.31 34.99 34.69 34.33 33.91 34.07 33.99 34.04 34.13 34.37 34.27 33.72 33.84 33.95 34.14 33.51
45.96 45.25 43.92 43.32 41.97 40.79 39.93 39.37 39.03 38.39 37.65 36.70 37.41 38.86 39.23 37.86 37.13 36.74 36.08 36.21 36.12 35.51 35.03 35.14 35.15 35.29 35.35 35.16 34.94 34.28 33.43 33.24 33.64 33.67 33.88 34.08 34.25 33.57 34.26 34.15 34.29 34.49 33.56
45.84 44.95 43.42 42.52 41.91 40.74 39.45 39.73 39.25 38.39 37.60 36.60 36.63 36.94 38.45 37.15 36.57 36.23 36.08 35.32 35.65 35.97 36.29 35.30 33.82 34.31 35.21 35.07 34.71 33.66 32.77 32.25 33.42 33.64 33.84 33.94 33.82 33.67 33.89 32.96 33.26 33.18 32.90
44.89 44.25 42.71 41.63 41.33 40.13 39.34 39.16 38.61 37.87 36.70 35.97 35.25 34.38 36.53 36.64 36.14 36.14 35.56 35.42 35.75 35.87 36.15 35.13 33.77 33.77 34.48 34.08 33.81 33.29 33.00 33.13 34.03 34.48 33.76 33.49 33.25 33.20 33.52 33.15 32.97 32.83 32.55
44.52 43.80 42.12 40.93 40.04 39.39 38.84 37.94 38.20 36.99 35.49 34.84 34.00 33.92 34.62 36.45 36.68 35.95 35.92 35.70 35.55 35.42 35.46 35.03 34.38 33.74 33.53 33.72 34.14 34.77 34.89 34.95 33.84 33.33 33.06 32.73 32.88 33.32 33.09 32.75 32.78 33.25 32.78
43.70 42.91 41.37 40.14 38.86 39.03 38.26 38.31 36.60 35.25 35.11 34.50 34.16 33.79 34.57 36.47 36.41 36.20 35.96 35.66 35.30 34.66 34.01 34.25 34.75 33.94 33.33 33.08 33.21 33.24 33.50 33.22 33.41 33.83 33.73 33.51 32.78 32.45 32.36 32.32 32.17 31.92 31.80
42.65 41.72 40.68 39.71 39.32 38.98 38.64 36.93 36.38 36.01 34.82 34.80 34.94 35.49 35.58 35.69 36.01 36.01 35.65 35.12 34.56 34.06 33.79 33.94 33.77 33.16 32.55 32.32 32.36 32.66 32.56 33.24 33.57 34.30 34.86 34.73 33.75 32.93 31.99 31.29 30.83 30.99 30.89

GFSGL_sfc_wetblb_141.txt.gz
Wetbulb
55.31 56.36 56.02 55.02 54.72 53.89 53.59 53.24 53.46 53.47 52.85 52.18 51.94 51.68 51.35 51.23 51.42 50.85 50.36 50.33 49.82 50.28 50.99 50.56 48.88 49.37 47.22 47.06 47.06 46.88 46.32 46.78 45.30 40.29 41.94 42.56 43.71 45.01 46.14 47.35 47.14 47.13 47.62
55.34 54.74 54.38 53.90 53.38 52.96 53.19 53.29 53.07 52.34 52.64 52.33 52.01 51.58 51.45 51.51 51.55 51.02 50.64 50.58 49.92 49.53 49.65 48.96 46.81 47.25 45.14 45.18 44.65 42.97 42.38 42.54 43.29 39.17 40.96 42.21 43.58 45.50 45.54 45.72 45.31 45.44 45.23
54.13 53.77 52.94 53.17 52.72 52.75 53.22 53.19 53.07 52.81 52.56 52.69 52.05 51.37 51.32 51.67 51.43 51.40 51.26 51.32 50.78 50.09 49.26 48.24 46.17 45.05 43.15 43.19 42.87 42.30 42.69 43.84 43.80 41.90 40.87 43.44 45.25 45.34 43.98 44.00 43.61 43.72 44.17
52.14 52.67 50.82 49.81 50.23 51.42 51.73 52.25 52.59 52.32 50.95 50.15 49.22 47.17 47.16 47.94 49.12 49.49 48.85 48.11 48.18 47.63 46.79 45.66 44.50 43.33 42.23 41.90 41.85 42.12 42.92 42.57 42.89 42.09 41.77 42.23 43.25 44.00 42.74 40.92 41.08 43.57 43.17
51.47 50.93 50.39 50.48 49.54 50.09 48.29 48.56 48.57 48.05 48.35 47.99 46.57 45.74 44.84 44.30 43.99 43.76 43.57 43.01 42.56 42.15 42.59 43.34 43.96 44.93 46.20 44.99 43.68 43.95 43.98 43.31 42.97 42.35 41.42 40.85 40.75 41.13 40.08 41.85 40.89 41.79 42.92
50.61 49.64 49.10 48.90 48.51 48.36 47.68 47.11 46.36 46.32 46.98 47.34 46.99 46.62 46.78 46.23 46.97 46.25 44.95 43.77 43.80 44.18 43.32 44.71 46.04 47.35 47.19 47.20 46.95 46.26 45.64 43.72 42.46 41.33 40.95 39.89 40.32 40.71 41.81 39.81 39.75 39.61 38.19
49.20 49.69 50.20 50.55 50.51 50.43 50.40 49.55 48.94 48.38 48.14 47.18 46.89 46.46 45.19 45.51 47.24 47.31 47.22 45.43 44.95 45.09 45.49 45.46 45.08 46.17 47.42 45.84 46.31 45.46 44.20 43.52 43.06 41.69 40.87 40.83 40.09 40.42 39.66 38.31 39.10 39.75 39.17
52.44 52.31 52.19 51.48 50.47 50.21 49.85 49.03 48.46 48.06 47.13 46.33 46.07 45.83 44.73 44.36 45.74 45.76 45.95 45.12 44.70 44.73 45.03 45.16 44.78 44.40 44.05 44.63 44.89 43.35 42.36 42.51 43.24 42.76 41.63 40.72 40.40 40.61 40.27 39.58 39.42 39.69 40.61
51.18 50.86 50.78 50.27 49.52 49.14 48.12 47.66 47.66 46.92 46.04 45.23 45.09 44.68 43.42 42.53 43.50 43.31 43.49 42.63 42.00 42.02 42.65 43.10 43.01 42.47 41.66 42.16 42.21 41.58 41.42 41.86 43.62 42.46 41.96 40.56 40.13 39.87 39.97 38.86 38.08 37.18 37.10
49.86 49.79 49.63 48.89 47.86 47.01 46.82 46.23 46.29 45.71 44.60 44.47 44.08 44.44 43.82 41.25 41.69 41.37 41.94 41.71 40.54 40.33 41.04 41.02 41.21 42.82 41.55 42.57 42.30 41.92 39.91 40.03 39.97 39.55 39.27 39.17 39.71 39.80 38.72 38.72 38.44 35.94 35.61
48.88 48.23 47.52 47.35 46.77 46.57 46.00 45.38 44.70 44.08 43.87 43.40 43.19 43.12 42.88 42.15 41.28 41.35 41.76 42.25 41.51 41.02 40.80 40.69 41.60 41.22 42.71 42.51 42.02 41.80 40.97 41.02 39.26 38.86 37.79 38.26 39.04 39.13 39.43 39.70 39.32 37.55 35.12
47.61 46.61 46.11 46.15 45.60 45.27 44.80 44.27 43.93 43.14 42.34 42.00 42.05 41.64 42.79 42.91 42.81 41.81 41.56 42.53 41.50 41.20 40.51 40.87 40.47 41.30 41.46 41.04 40.78 41.56 40.95 39.73 38.75 36.97 36.18 36.01 36.24 37.21 38.00 38.30 38.80 38.49 38.48
46.45 45.61 45.29 45.31 44.47 44.63 43.73 43.21 42.65 42.49 41.64 40.87 40.50 39.94 39.93 41.55 41.91 43.59 41.95 41.69 41.08 41.05 41.16 40.45 39.66 39.15 38.58 38.44 38.32 39.63 39.37 38.20 36.70 35.06 34.49 35.19 36.21 37.45 37.61 37.68 38.27 38.12 38.42
45.78 45.27 44.86 43.96 43.38 43.78 43.82 43.30 42.63 41.87 41.06 40.59 40.12 39.81 39.73 39.61 40.82 41.73 41.70 41.00 40.97 40.01 39.84 39.62 38.73 37.84 37.47 37.53 37.35 39.26 37.81 37.08 36.19 35.82 35.73 36.63 37.85 37.37 36.03 37.07 36.73 37.01 36.20
46.18 45.41 44.54 44.22 43.25 43.24 43.41 43.09 42.77 43.15 43.25 41.14 40.79 40.62 39.46 38.49 40.06 42.53 41.35 40.27 40.73 40.80 39.80 38.66 37.12 36.43 35.47 35.52 35.94 36.40 37.12 36.68 36.05 36.95 35.85 35.61 36.05 36.68 36.36 36.42 36.08 35.91 34.43
46.25 45.58 45.20 44.29 43.65 43.53 42.87 42.00 40.40 42.76 42.21 41.25 43.20 42.78 41.21 41.08 42.31 41.34 40.05 39.83 40.20 39.82 38.01 36.69 35.42 35.14 34.30 34.40 34.28 34.80 35.82 35.93 36.25 36.48 36.33 36.23 35.41 35.28 35.01 35.09 35.15 34.34 32.97
47.07 46.12 45.51 44.71 43.83 43.06 42.59 41.18 38.76 37.77 39.86 39.77 40.45 40.41 40.69 40.02 40.64 40.30 39.97 40.52 40.30 39.10 36.24 36.38 35.32 34.97 34.27 34.73 35.03 35.45 35.00 35.94 36.78 36.37 35.75 35.32 35.26 35.17 35.08 35.20 34.79 34.24 33.21
48.35 46.81 45.89 44.68 44.77 43.77 43.08 42.07 41.72 38.76 37.16 37.54 40.10 40.17 39.89 40.17 40.01 40.25 40.51 39.19 38.08 37.66 36.94 36.32 35.48 35.23 34.58 35.01 35.69 35.62 35.91 36.21 36.21 36.05 35.89 35.91 35.95 34.92 34.39 34.23 33.99 33.26 33.17
48.19 47.17 46.47 45.20 45.57 44.29 43.34 42.25 41.94 40.54 39.38 38.95 39.19 39.64 39.99 39.83 40.37 40.01 39.60 37.21 37.22 36.61 36.91 36.76 36.23 35.64 35.86 36.12 35.48 35.40 35.27 34.50 35.43 35.48 35.15 34.86 35.10 35.10 34.13 33.98 33.86 34.14 33.99
48.47 47.22 46.04 45.53 44.95 43.41 42.46 41.47 40.89 40.16 39.99 39.31 38.52 37.64 38.15 38.71 37.06 36.56 36.99 37.23 37.94 37.67 37.37 36.67 36.01 36.18 36.34 36.36 35.98 35.62 34.91 34.38 34.30 34.40 34.28 34.37 34.48 34.35 33.60 33.73 34.13 33.27 33.03
48.09 47.52 45.80 45.97 44.54 43.07 42.20 41.27 40.65 39.91 39.26 38.70 38.84 39.16 39.70 37.32 36.00 36.22 36.83 37.80 37.63 37.33 36.72 36.49 36.52 36.20 36.35 36.00 35.78 35.13 34.20 33.53 33.86 33.86 33.93 34.03 34.48 33.62 34.28 34.34 33.30 33.12 32.87
48.12 47.10 45.10 45.08 44.78 43.15 42.11 41.79 40.49 39.64 38.97 37.63 38.26 38.99 40.30 38.20 37.19 37.37 37.67 37.23 37.65 37.81 37.61 36.83 35.62 35.25 35.99 35.42 35.15 34.27 33.06 32.38 33.18 33.90 33.90 34.09 33.86 33.61 33.56 33.36 33.29 33.28 32.99
47.70 46.61 44.59 44.84 44.63 43.50 42.10 41.49 40.15 39.55 38.53 38.22 37.35 36.90 37.68 36.76 36.88 37.23 37.11 37.24 37.25 36.83 37.16 36.38 34.74 33.73 34.68 34.51 34.34 34.11 32.65 32.80 34.04 34.30 33.32 33.05 32.56 32.68 33.32 32.99 32.96 32.53 32.36
46.88 46.08 44.31 43.92 43.51 42.16 41.04 40.60 39.91 39.27 38.47 36.92 35.72 36.71 37.07 36.97 37.75 37.09 37.10 36.94 36.68 36.46 36.50 35.79 34.67 33.03 33.32 33.61 34.29 34.91 35.12 34.99 34.25 32.94 32.22 31.27 31.55 32.37 32.57 31.89 31.77 31.83 31.82
46.21 45.45 44.39 43.36 42.11 40.97 40.54 40.05 39.48 38.50 36.77 35.83 35.34 35.31 36.81 37.09 37.38 37.11 36.83 37.00 36.35 35.75 35.05 35.22 34.58 33.86 33.13 33.02 33.46 33.51 33.97 33.03 32.54 33.27 33.52 33.15 32.84 32.83 32.66 32.25 31.45 30.63 30.65
45.05 44.75 43.45 42.56 41.25 41.23 40.37 39.82 38.82 36.72 35.99 35.82 35.81 36.10 35.46 36.72 37.38 37.43 36.95 36.33 35.57 35.07 34.75 34.79 33.52 33.08 32.95 32.66 32.45 32.58 32.14 32.43 32.63 33.69 33.99 33.67 33.09 33.01 32.44 31.29 30.94 30.53 30.31

GFSGL_sfc_wetblb_144.txt.gz
Wetbulb
55.23 54.99 54.40 53.61 53.48 53.33 53.02 53.05 52.60 52.62 52.51 52.13 52.03 51.85 51.61 51.37 51.38 50.92 50.60 50.57 50.40 50.08 49.79 49.07 48.27 48.09 47.71 47.61 47.83 47.83 47.77 48.15 46.75 41.10 41.25 41.54 42.30 42.45 44.56 44.59 45.25 42.52 44.75
54.27 53.62 53.16 53.28 53.46 52.62 51.97 52.07 52.44 51.93 52.24 51.94 51.84 51.55 51.37 51.33 51.33 50.90 50.44 50.27 49.93 49.53 49.26 48.39 47.34 48.25 46.25 46.34 46.20 44.71 44.66 43.27 43.06 38.99 39.53 40.39 41.73 42.85 42.66 42.05 42.97 44.27 40.83
52.87 52.90 52.66 52.69 52.73 52.43 52.30 52.61 52.46 51.83 51.74 51.79 51.65 51.25 51.35 51.49 51.47 51.56 51.25 50.72 50.04 49.38 48.70 47.27 46.22 46.19 43.91 42.80 42.10 41.04 41.15 42.78 41.89 40.11 39.43 41.49 42.20 42.45 41.13 40.49 39.66 38.80 42.10
52.16 50.49 50.11 51.22 51.43 51.81 51.97 51.88 51.33 51.07 49.84 48.49 48.00 47.13 47.69 48.99 49.49 50.29 49.93 49.02 47.09 46.47 46.69 45.87 44.59 43.40 41.81 41.40 41.31 41.37 42.15 41.57 41.40 40.76 40.04 40.38 40.82 40.99 39.10 37.01 36.88 38.83 39.35
50.42 49.87 48.73 49.69 48.80 48.80 47.89 47.98 48.45 46.80 46.39 45.99 45.05 44.45 43.81 43.69 43.87 42.50 42.67 42.35 41.73 41.88 42.44 42.76 43.04 44.54 46.51 44.36 42.53 42.14 41.67 40.90 40.76 40.00 38.52 37.07 36.71 36.29 35.05 36.81 36.32 36.74 37.67
49.16 48.45 48.47 47.78 47.19 45.95 45.79 45.41 45.48 45.55 45.70 45.68 45.25 45.19 44.68 46.05 48.29 47.41 44.31 42.24 41.51 41.30 41.65 42.48 44.59 47.19 46.78 47.88 47.61 47.18 44.09 39.29 37.75 36.81 35.94 34.72 34.66 34.94 35.09 34.49 34.15 33.69 32.85
48.77 48.96 48.74 48.86 47.81 46.91 46.66 46.41 46.01 44.81 43.58 42.65 42.30 42.40 42.29 43.63 48.76 48.32 47.43 42.86 42.83 43.51 43.03 43.01 44.12 46.05 45.21 43.58 46.39 46.02 44.47 44.09 42.11 35.96 34.68 34.31 33.56 34.30 34.28 34.08 33.45 33.13 33.18
49.14 49.63 50.14 48.57 46.63 46.27 45.21 43.65 42.39 41.72 41.05 40.81 41.06 40.73 40.95 44.02 47.90 48.04 47.26 40.96 40.38 40.76 41.17 40.83 40.56 40.12 41.44 42.50 41.32 39.45 38.20 38.87 39.76 40.16 36.12 35.39 35.75 36.69 37.57 38.27 35.43 34.22 35.45
48.51 47.37 47.02 46.41 45.36 44.92 43.55 42.24 41.83 40.80 39.87 39.38 39.97 38.77 37.79 38.34 45.32 45.57 41.85 37.95 37.73 37.37 38.37 39.11 38.72 36.91 42.92 43.12 38.58 36.98 36.28 38.73 43.86 43.72 41.94 41.12 40.60 40.29 38.81 34.87 32.72 34.38 31.87
46.79 46.55 46.24 45.81 44.60 43.00 41.55 40.67 40.23 39.27 38.88 39.79 38.75 37.72 41.51 36.01 43.22 43.56 40.47 37.41 34.83 35.78 36.30 36.90 43.51 40.48 42.64 42.53 38.24 36.95 35.17 38.12 38.97 38.45 38.30 38.96 39.41 37.58 39.37 34.53 33.38 31.63 33.69
46.97 45.70 44.41 43.48 42.50 41.70 40.37 39.45 38.40 38.49 38.20 37.36 37.31 36.66 36.12 36.91 38.00 43.33 44.22 37.65 36.83 36.36 36.45 36.43 38.25 41.80 43.23 42.60 42.48 39.70 40.01 39.43 39.46 37.07 36.36 36.52 37.10 37.67 37.55 37.92 37.66 36.06 33.94
44.54 43.21 41.96 41.43 43.61 42.17 38.88 37.97 38.08 37.50 36.17 36.08 35.75 35.78 36.85 37.23 41.99 42.89 44.16 43.17 42.57 37.47 36.58 37.14 38.47 42.20 41.73 41.06 40.99 42.18 41.46 39.99 37.13 35.44 34.87 34.48 34.77 35.39 36.03 36.66 37.15 37.24 37.23
42.37 40.59 40.39 40.41 40.16 39.68 38.17 37.05 36.83 36.68 35.88 35.61 35.68 34.56 35.23 38.33 38.57 43.12 42.72 42.39 42.22 38.09 37.83 40.01 40.69 39.96 39.09 38.58 39.08 39.28 40.05 36.56 35.43 33.60 33.20 33.80 34.84 35.91 36.44 36.47 37.22 37.43 36.88
41.27 39.54 39.34 38.73 38.12 38.27 39.17 38.34 37.15 36.11 35.36 35.75 35.18 33.95 33.93 34.63 36.54 37.73 38.41 37.29 41.04 39.12 39.92 36.93 37.70 37.39 37.75 37.08 36.99 38.39 37.17 35.84 35.14 34.51 34.94 35.13 36.12 36.08 35.14 35.54 35.07 35.72 34.82
41.70 40.72 39.63 39.33 37.82 36.92 37.76 37.39 37.94 37.00 37.57 34.84 34.74 34.85 33.55 32.82 36.11 40.00 39.35 37.37 36.70 38.89 36.97 34.93 33.92 34.73 34.15 34.41 35.12 35.72 36.03 35.96 35.04 35.74 35.04 34.56 35.26 35.71 35.73 35.46 34.82 34.06 33.09
41.82 40.94 40.08 39.14 37.18 37.25 36.86 35.46 44.31 43.87 45.12 44.28 43.92 38.62 37.91 41.03 43.69 43.81 42.04 41.75 41.90 40.72 35.08 32.66 31.78 33.89 33.16 32.86 32.94 33.51 34.75 35.07 35.08 35.47 35.33 35.40 35.06 34.63 34.41 34.86 34.52 33.25 32.28
42.38 41.61 41.09 40.47 38.40 36.88 36.88 35.34 32.37 36.95 42.19 43.58 43.38 43.77 41.84 42.31 43.34 42.55 41.19 40.93 40.70 38.55 31.96 31.58 31.94 32.96 33.09 33.36 33.57 34.07 33.69 34.68 35.04 34.73 34.74 34.17 34.72 34.69 34.77 33.71 33.68 33.79 32.72
43.10 45.33 41.18 39.67 39.26 37.99 37.39 36.15 35.22 33.30 32.16 33.05 40.39 39.75 41.74 41.78 41.61 41.00 40.73 40.56 37.07 37.17 33.42 31.45 31.34 32.90 32.35 33.69 34.32 34.64 34.93 35.29 34.93 35.05 34.97 35.05 34.78 34.13 32.29 32.74 33.15 32.30 32.12
43.99 43.11 41.43 39.98 39.79 39.55 37.69 36.60 36.49 34.73 33.74 33.43 34.66 38.67 39.92 41.36 40.97 41.00 41.17 36.13 34.84 34.09 33.83 33.42 33.37 33.28 33.17 33.19 34.11 33.63 33.77 33.27 33.56 33.56 34.25 33.95 33.12 33.58 32.94 32.62 32.67 33.60 33.91
44.62 45.07 43.46 41.15 40.74 39.11 37.52 37.02 36.21 35.52 34.68 34.48 34.74 34.19 36.36 37.91 36.58 36.54 36.82 36.38 34.67 34.74 34.81 33.49 33.78 33.31 33.10 33.09 34.32 34.02 33.91 33.94 33.72 33.40 33.37 33.19 33.38 33.38 32.66 32.84 33.22 32.80 31.18
44.23 43.44 44.60 41.34 40.53 39.55 38.67 37.80 36.83 35.37 34.67 34.97 35.21 37.02 38.74 36.11 35.70 35.16 35.41 35.10 34.37 34.41 33.56 33.88 32.28 31.89 32.31 33.12 32.59 32.64 33.64 33.31 33.11 32.99 33.18 33.30 33.67 33.04 33.64 33.57 32.86 32.20 32.41
44.24 42.83 42.59 41.42 40.92 39.94 38.78 38.41 36.82 36.02 35.83 35.86 36.08 37.67 39.94 36.39 35.41 35.39 35.41 35.47 34.99 35.88 34.96 32.37 31.64 32.32 31.15 31.35 32.39 32.41 33.21 32.40 32.77 33.07 33.29 33.45 33.40 33.22 33.01 32.45 32.82 32.86 32.55
44.67 43.08 41.76 40.99 41.23 41.75 39.70 37.49 36.71 36.73 36.31 36.46 36.22 36.96 37.56 35.81 35.89 35.49 35.87 34.76 34.88 33.67 33.58 33.22 31.14 32.54 33.58 32.94 33.87 33.67 32.43 31.98 33.30 34.56 32.83 31.93 31.07 30.61 31.86 32.48 32.11 30.93 30.77
44.36 42.92 41.43 40.37 40.59 39.57 38.00 37.06 36.95 37.71 36.04 35.46 35.54 36.18 36.65 35.80 35.35 35.95 34.31 33.98 32.77 32.45 31.66 30.34 29.94 32.93 32.69 33.08 33.66 34.20 34.35 34.70 34.16 32.71 32.25 31.34 30.74 30.83 31.29 31.47 31.19 31.24 30.70
43.07 42.02 41.04 40.09 40.44 38.40 37.81 36.75 36.28 35.38 34.30 34.10 35.04 35.78 35.95 35.16 36.27 34.69 33.17 32.17 31.11 30.16 29.59 28.10 29.60 33.05 32.78 32.69 33.50 33.72 34.00 33.18 32.72 32.74 32.53 32.04 31.88 32.20 32.12 32.24 31.93 30.82 30.32
42.39 41.98 40.53 39.14 38.54 37.95 37.33 35.88 34.32 33.37 32.96 33.08 33.63 34.95 35.23 36.08 35.56 32.73 31.57 31.46 29.57 28.98 29.46 28.23 31.17 32.63 32.55 32.52 32.64 32.80 32.42 32.43 32.07 32.89 33.02 32.28 31.46 31.73 32.08 31.69 31.49 31.07 30.31

GFSGL_sfc_wetblb_147.txt.gz
Wetbulb
54.64 54.21 53.65 53.44 53.50 53.63 53.04 52.74 52.76 53.09 53.66 53.56 52.77 52.07 51.70 51.39 51.58 51.54 51.39 51.12 49.85 49.24 49.31 48.79 48.03 48.67 48.24 48.52 48.87 49.00 48.62 49.12 46.83 42.76 42.36 41.73 41.82 42.18 43.95 43.91 45.21 42.89 40.87
53.56 53.28 53.25 52.89 52.47 52.05 52.01 52.19 52.61 52.03 52.43 52.29 52.26 51.78 51.53 51.33 51.43 51.28 51.05 51.13 50.25 49.30 49.00 48.91 48.39 49.37 47.78 47.90 47.85 46.56 46.72 46.45 46.37 43.00 39.67 39.57 40.07 40.62 40.36 42.36 43.22 44.17 39.60
53.16 52.76 52.67 52.30 51.95 51.74 51.92 52.05 52.08 51.68 51.74 51.98 51.88 51.50 51.47 51.50 51.36 51.27 50.92 50.62 50.35 49.78 49.10 48.66 47.90 47.74 46.24 44.67 43.95 42.00 41.59 42.58 41.89 40.02 39.01 41.08 41.82 42.16 40.86 40.61 40.42 38.23 41.48
51.37 51.54 51.20 51.48 51.47 51.53 51.59 51.30 51.00 50.66 50.03 49.84 50.15 51.22 51.30 51.48 51.54 51.45 50.98 50.20 49.65 49.16 48.74 47.65 46.78 45.85 43.21 41.65 41.49 41.34 41.63 40.32 40.35 40.54 40.20 40.01 40.40 39.89 39.01 36.56 35.98 37.39 38.03
49.55 49.21 48.57 49.09 49.47 49.15 48.89 47.43 46.25 45.98 46.32 45.63 45.18 44.77 45.57 46.24 47.49 47.10 47.02 45.65 44.62 43.30 43.09 43.26 43.25 44.53 46.51 44.32 42.29 41.40 40.86 40.43 40.22 39.60 38.83 38.09 37.09 35.39 34.29 35.42 34.67 34.92 35.99
48.64 47.81 47.81 47.00 46.38 45.57 45.55 45.20 44.16 43.84 43.82 44.28 44.26 44.96 45.03 46.53 48.99 47.73 44.33 42.47 42.23 41.91 41.77 43.65 45.63 47.71 47.70 48.07 47.79 47.20 43.21 39.20 38.31 36.32 35.31 34.24 33.23 34.28 34.14 33.62 33.31 32.54 31.63
48.07 47.70 47.30 46.74 46.03 45.81 45.93 45.70 45.25 44.12 43.10 42.56 43.25 44.18 44.17 46.09 49.33 48.44 46.83 43.04 42.24 42.22 42.78 43.27 44.10 45.83 44.61 43.69 47.24 46.47 44.97 45.21 42.26 35.98 33.84 33.54 32.50 33.36 33.14 32.46 32.03 31.55 31.78
48.38 48.35 48.17 47.25 46.32 46.36 44.42 41.50 39.96 39.74 39.39 39.80 39.92 40.64 42.03 45.71 49.15 48.71 47.16 40.64 40.33 39.77 39.60 40.33 40.60 40.01 42.18 41.90 39.57 38.16 37.62 38.08 38.68 38.74 35.22 34.63 34.62 34.99 34.46 35.00 33.25 32.65 33.30
48.66 48.49 48.58 46.07 43.91 42.54 40.85 39.50 38.98 39.45 38.82 38.00 37.94 37.74 38.09 40.69 47.86 46.91 41.19 37.12 36.60 36.58 38.82 37.86 37.35 37.26 44.46 44.09 37.18 35.42 37.22 38.57 44.40 43.91 42.21 41.61 41.09 40.37 38.42 33.27 31.55 31.01 30.43
47.68 46.60 45.60 44.59 43.50 41.73 40.10 39.17 38.01 37.82 38.53 38.58 36.74 36.00 41.72 36.57 46.04 45.33 39.83 36.09 34.29 35.15 34.85 38.81 43.54 40.13 43.28 43.33 37.19 35.95 34.64 35.60 36.73 38.12 37.78 37.84 39.07 36.75 39.96 33.44 32.36 30.09 31.40
46.88 45.88 45.03 44.12 42.18 40.27 38.47 37.26 36.28 36.45 36.90 36.17 35.55 34.39 34.38 36.23 40.13 44.68 43.30 35.51 34.66 34.58 34.91 36.09 37.45 43.00 43.62 42.72 42.42 37.14 37.20 38.51 39.99 36.54 35.98 36.44 36.59 37.09 37.48 37.46 37.07 35.73 33.53
45.99 44.66 43.32 41.53 42.89 40.16 37.45 35.81 36.63 36.54 35.45 33.74 33.64 33.60 35.36 36.67 43.34 45.04 45.06 43.20 41.51 36.27 36.04 36.12 38.41 42.87 41.75 41.44 40.04 42.62 42.43 40.04 36.72 35.12 34.68 34.32 34.52 34.83 35.67 36.23 36.75 36.80 36.83
43.48 41.89 40.73 40.28 39.43 38.44 37.25 35.84 35.73 35.45 35.36 34.36 34.98 33.95 34.21 36.62 37.61 44.39 44.41 44.22 43.27 37.45 36.88 39.94 41.49 40.34 39.75 37.73 39.59 39.49 40.04 36.32 35.15 33.65 33.11 33.43 34.42 35.34 36.08 36.31 36.90 36.78 36.90
41.29 40.06 39.03 39.40 37.85 36.86 37.75 37.46 36.48 35.46 34.60 35.29 34.72 33.52 34.30 35.06 36.36 36.63 37.09 38.39 42.82 39.78 40.56 37.24 37.70 37.34 37.96 36.33 36.76 38.07 36.91 35.75 35.12 34.40 34.54 35.14 35.74 35.73 34.85 35.27 34.72 34.94 34.10
40.56 39.62 38.98 39.89 38.23 36.09 36.74 36.50 36.58 34.90 37.27 34.56 33.73 33.85 33.71 33.16 36.32 39.20 37.92 35.87 35.47 37.37 35.85 33.85 32.20 31.57 31.15 31.75 35.11 35.79 36.02 35.84 34.82 35.21 35.30 34.45 34.91 35.30 35.24 35.54 34.33 33.21 32.19
39.67 39.01 38.68 38.42 36.95 36.47 35.83 35.87 43.22 41.59 44.00 42.99 41.70 37.64 36.26 39.67 42.84 43.49 43.14 42.04 41.81 42.02 34.30 31.34 30.42 30.78 29.98 29.99 30.66 32.90 34.33 34.72 34.63 34.52 34.18 34.59 34.68 34.38 33.92 34.69 34.79 33.44 32.73
40.47 39.62 39.40 38.96 37.28 35.91 35.95 35.48 34.45 38.66 45.63 45.07 44.72 43.64 42.21 42.21 44.54 44.01 42.92 42.55 42.31 39.24 31.06 30.54 30.00 29.90 30.00 30.14 31.48 31.94 32.91 32.14 32.91 32.73 33.17 33.83 34.13 34.61 34.60 33.17 32.62 33.87 32.42
41.18 43.25 39.44 38.24 37.86 36.95 36.10 34.35 34.69 34.00 32.77 33.86 43.98 42.40 44.65 45.32 45.03 43.57 42.04 40.80 37.17 36.06 32.54 31.36 30.81 30.39 29.82 30.07 31.52 33.38 34.51 33.93 33.94 33.94 35.13 35.05 34.23 33.30 31.13 31.09 32.65 31.94 31.78
41.19 40.82 39.41 38.37 37.81 38.10 36.35 34.96 34.56 33.32 32.91 32.64 33.93 39.43 42.64 43.31 42.72 41.93 41.47 36.60 33.71 34.81 34.31 32.56 32.27 31.27 31.27 30.88 31.56 32.42 31.89 31.01 31.99 33.39 32.75 33.36 33.68 32.88 30.84 31.85 32.33 33.26 33.46
41.94 43.24 41.09 38.43 38.45 37.39 36.30 35.69 34.52 33.63 33.10 32.86 33.68 33.55 35.80 38.98 36.97 37.32 38.30 35.67 34.69 34.48 34.32 33.06 32.70 32.17 32.36 32.40 32.09 31.85 31.21 32.03 32.30 32.83 32.75 32.65 31.88 32.29 32.46 31.88 32.43 32.24 30.36
42.31 42.02 42.60 39.27 38.69 37.70 37.09 36.21 35.57 34.18 33.37 33.27 33.92 35.97 39.35 36.52 36.15 36.57 36.02 34.88 35.29 33.34 32.54 31.97 30.72 31.56 31.86 31.87 31.47 31.13 30.45 31.55 32.96 32.63 32.71 32.25 32.44 32.37 32.86 32.49 31.94 31.97 31.57
42.79 41.93 41.05 39.80 39.23 38.28 37.43 37.37 36.06 34.99 34.40 34.41 34.52 36.83 40.29 35.45 35.97 36.17 33.86 35.94 35.72 33.04 33.16 31.75 31.01 31.00 29.30 28.78 30.17 28.18 28.97 32.37 32.63 32.53 32.64 33.85 32.92 32.21 31.54 31.82 32.52 32.59 31.27
43.20 41.54 40.35 39.44 39.40 40.12 38.49 37.00 35.93 35.17 34.81 34.82 34.68 35.67 36.89 35.40 35.52 33.88 35.67 36.06 34.59 32.60 31.98 31.20 29.00 29.01 30.21 30.57 31.41 32.03 32.40 31.82 32.92 34.85 32.00 30.12 29.16 29.61 29.35 29.98 31.13 29.99 29.86
43.05 41.37 39.92 39.48 39.36 38.43 37.14 36.03 35.57 36.51 34.51 34.41 34.59 35.77 36.59 35.85 34.93 35.93 35.99 34.87 32.59 30.93 29.79 28.50 27.90 28.65 31.25 32.62 33.54 33.97 34.04 34.75 34.37 32.58 32.05 30.98 30.62 30.56 30.49 31.13 31.25 31.51 31.36
42.54 40.79 39.80 39.58 39.53 37.45 37.22 35.60 35.34 34.72 34.01 34.18 34.44 35.96 36.57 34.55 34.76 36.03 35.09 32.62 29.44 28.80 28.57 27.98 27.03 29.77 32.71 32.81 33.29 33.76 34.31 33.53 32.74 32.57 32.10 31.43 30.01 30.26 29.48 30.19 31.65 31.23 30.71
41.82 40.68 39.69 39.20 38.20 37.49 36.83 35.32 34.32 33.30 32.78 33.29 34.24 34.79 34.46 33.32 34.44 35.03 33.73 30.01 28.57 27.89 28.30 26.86 28.07 29.82 32.19 32.48 32.74 33.19 32.86 32.35 31.89 32.22 32.21 31.88 30.94 30.83 31.00 30.81 31.20 30.53 29.72

GFSGL_sfc_wetblb_153.txt.gz
Wetbulb
54.17 54.11 54.03 53.85 54.04 53.74 53.36 53.60 54.38 53.97 53.75 53.83 54.71 56.11 56.86 56.74 56.57 54.99 53.81 53.04 51.81 50.33 50.53 50.41 49.22 49.52 48.93 49.12 49.40 48.88 48.53 48.22 44.65 42.74 42.98 41.69 41.56 43.08 44.30 44.14 44.25 42.31 43.75
53.57 53.05 52.64 52.84 52.83 52.42 52.37 52.93 53.62 53.25 53.40 52.94 53.20 53.29 53.63 54.08 54.51 53.32 51.90 51.46 50.45 49.55 49.11 49.28 49.02 49.82 48.86 48.97 48.63 48.31 48.33 48.29 48.01 44.79 40.94 40.31 40.91 41.48 41.87 41.57 42.58 42.89 40.88
52.76 52.34 52.04 51.85 51.69 51.43 51.77 52.16 52.68 52.86 52.85 52.82 52.58 52.36 52.26 52.44 52.40 52.24 51.57 50.76 50.16 49.70 49.87 49.69 49.34 49.31 48.14 47.71 47.22 46.08 46.11 46.30 44.42 43.20 39.22 40.58 41.40 41.33 40.10 39.89 39.92 40.01 42.26
52.25 51.63 51.01 51.05 51.05 50.55 49.85 49.96 50.68 51.69 51.86 51.93 51.99 51.80 51.81 51.90 51.84 51.73 51.57 51.09 50.92 50.75 50.55 50.18 49.77 49.32 47.40 45.88 44.88 43.46 42.90 42.04 41.25 40.66 39.63 39.60 40.09 38.35 37.06 36.68 37.09 37.06 35.50
50.67 50.57 50.06 49.35 48.22 47.50 47.20 47.32 47.31 47.99 48.89 50.22 50.53 50.80 51.18 51.37 51.40 50.50 50.08 49.24 48.50 47.71 47.67 47.17 46.33 47.28 48.81 45.42 43.17 41.66 41.27 40.49 40.11 38.75 38.42 37.67 36.36 34.23 33.49 34.30 33.04 33.16 33.65
49.70 48.57 47.55 46.87 46.54 45.80 45.85 45.68 45.66 45.92 46.65 47.24 47.50 48.67 50.01 51.61 52.97 51.74 49.05 47.13 46.17 44.95 44.02 46.05 48.63 49.53 48.69 48.53 47.65 46.35 43.20 39.36 37.80 35.86 34.40 32.96 31.93 32.66 32.66 32.37 31.91 31.05 30.15
48.19 47.44 46.91 46.43 45.85 45.49 45.13 44.53 44.10 43.82 45.39 45.72 46.43 47.32 48.77 50.94 52.55 51.27 48.95 44.49 43.80 44.20 44.25 44.35 44.88 46.15 44.59 43.16 47.41 47.13 46.45 46.26 42.34 35.32 32.91 32.05 31.54 31.86 31.45 30.59 30.19 29.88 29.88
47.90 47.13 46.89 46.12 45.36 44.72 43.88 42.98 42.37 40.93 41.54 44.25 44.28 43.81 44.22 47.57 50.49 48.89 46.57 41.25 40.64 40.96 41.00 40.57 40.44 40.47 40.85 38.38 37.71 36.87 35.91 35.82 36.44 37.00 34.13 33.32 33.39 33.15 32.70 32.81 30.98 30.16 30.58
47.49 46.89 46.65 46.02 44.08 43.37 42.20 39.05 37.96 38.53 38.54 38.77 40.08 41.25 42.20 44.24 48.81 47.20 41.50 38.27 37.76 37.33 38.08 38.80 39.87 40.66 46.05 43.68 36.70 35.51 36.03 37.42 43.37 43.76 42.60 42.52 41.65 41.16 36.92 31.76 30.28 29.95 29.04
47.78 47.27 46.91 45.48 43.51 40.75 38.10 37.78 36.91 37.33 37.56 38.35 37.62 39.61 46.12 42.23 47.28 45.80 39.62 37.15 34.79 35.86 36.28 38.35 44.50 41.00 44.97 42.27 34.70 34.84 34.31 34.95 35.23 34.89 34.70 38.02 38.49 36.72 40.15 32.87 30.74 29.17 28.60
48.89 47.62 45.73 43.96 40.17 38.63 37.12 36.59 36.19 36.02 35.81 34.54 33.64 34.65 36.88 40.16 42.43 45.11 42.92 35.35 35.65 35.73 35.67 35.81 38.05 44.24 44.00 43.69 40.09 35.07 35.88 36.45 38.35 34.56 35.78 35.67 35.85 36.35 37.17 36.55 36.12 34.94 32.90
47.61 45.98 43.82 40.27 41.07 38.79 36.61 34.99 34.85 34.26 33.06 32.03 32.70 33.80 35.06 36.72 44.31 44.56 43.48 40.61 40.14 34.93 34.73 35.78 39.17 42.86 42.48 42.11 41.14 43.47 43.19 40.03 36.43 35.07 34.38 33.84 34.03 34.33 35.01 35.51 35.97 36.12 36.35
46.09 44.15 41.19 39.60 38.16 36.80 35.72 34.10 33.74 32.96 32.24 31.32 32.47 32.79 33.90 36.29 37.52 44.60 44.14 43.84 42.70 35.94 36.37 40.84 42.05 41.58 39.77 37.30 40.83 41.89 38.99 35.33 34.64 33.35 32.58 32.95 33.73 34.52 35.32 35.79 36.37 35.64 35.62
44.59 41.63 39.85 38.41 36.09 35.30 36.08 35.71 34.41 32.78 31.41 32.00 31.68 31.60 33.04 34.16 35.49 36.92 38.29 39.56 42.83 39.74 41.41 37.75 37.02 37.27 38.09 37.07 35.30 35.30 34.11 34.67 35.14 34.22 34.20 34.93 35.46 35.15 34.12 33.86 32.19 33.54 31.81
42.84 41.18 39.59 39.33 36.54 34.08 34.73 34.60 34.97 33.42 35.17 32.90 31.74 32.19 32.88 33.02 34.97 38.91 38.43 36.74 36.13 38.12 34.93 32.91 31.29 30.32 29.97 30.38 31.44 32.43 33.18 32.98 32.50 34.43 34.79 33.48 34.38 34.23 33.00 33.52 32.93 31.49 29.99
42.13 40.63 39.57 38.55 36.01 35.04 34.13 33.92 40.27 39.35 41.67 40.87 39.96 36.28 35.75 39.25 42.81 43.32 43.23 42.26 41.85 41.43 33.55 30.48 29.95 29.60 28.98 28.83 28.92 29.20 30.58 32.99 33.01 32.52 31.34 31.44 31.81 32.35 32.56 33.44 33.91 32.05 30.26
43.15 41.33 40.50 38.83 36.51 34.75 34.31 34.21 33.15 38.67 43.32 42.80 42.92 42.40 41.66 41.97 43.56 43.09 42.79 42.51 42.30 40.41 30.93 30.33 29.51 29.34 28.93 28.90 28.59 28.82 29.61 30.85 31.07 30.49 30.18 31.08 33.12 33.37 34.03 32.45 31.41 32.28 30.01
42.66 44.05 40.11 37.67 36.52 35.52 34.99 34.14 34.44 35.26 34.82 35.21 43.17 42.55 43.29 43.39 44.44 44.30 43.24 42.19 37.41 36.87 30.94 29.73 29.76 29.43 29.07 29.00 29.40 29.69 30.26 30.98 30.79 32.86 33.68 34.23 34.56 33.59 31.23 31.05 30.67 28.72 28.54
41.29 40.58 38.47 37.45 36.42 36.58 35.18 34.35 34.37 34.12 34.05 33.65 35.34 41.85 43.40 44.32 45.11 44.53 44.15 36.74 35.62 31.96 31.51 31.91 31.67 29.76 29.27 29.12 29.38 30.22 30.07 29.43 29.53 30.84 30.39 29.74 31.66 31.65 29.55 29.34 28.87 32.22 32.01
41.16 41.61 39.35 36.78 36.87 35.02 34.60 34.27 33.13 33.01 32.91 32.88 34.07 34.33 37.39 41.57 40.04 39.77 38.04 36.76 35.64 34.73 34.72 34.15 31.48 30.07 29.64 29.38 29.48 29.65 29.21 29.13 28.97 28.97 31.11 29.22 29.04 29.49 29.67 30.56 29.89 30.20 28.38
40.34 39.62 40.18 36.92 36.28 35.41 34.93 34.49 34.15 32.61 32.27 32.26 32.96 35.34 41.41 38.85 38.56 38.09 37.42 36.60 35.58 35.33 35.41 34.45 29.86 29.55 29.53 29.49 29.21 29.17 28.62 28.68 29.31 32.03 31.87 29.25 30.71 31.40 32.25 30.75 29.66 30.76 31.41
39.90 39.09 37.78 37.05 36.31 35.50 34.88 34.99 33.81 32.76 32.05 32.07 31.26 35.18 42.81 35.21 37.37 37.04 36.82 36.81 35.97 35.97 35.58 33.06 28.59 29.27 28.25 28.12 29.28 27.08 26.58 30.33 33.06 32.51 31.37 32.20 30.70 29.30 28.48 27.87 28.09 28.96 29.41
39.92 38.68 37.27 36.84 36.55 37.66 36.22 34.51 33.57 33.07 32.43 32.01 32.45 34.08 38.60 36.34 36.14 36.28 36.07 36.68 36.68 35.70 34.26 29.63 28.04 28.48 29.19 29.32 29.82 30.09 28.82 31.48 32.55 32.86 30.22 28.74 28.22 28.54 29.62 28.49 28.93 28.55 29.01
40.10 38.95 37.40 36.82 36.67 36.10 35.09 34.25 33.87 34.69 32.86 32.34 32.49 33.52 37.19 36.94 36.36 34.53 34.84 36.32 35.54 33.99 31.65 27.92 27.85 28.18 28.41 28.85 29.56 31.65 32.76 32.01 33.41 32.66 31.83 29.87 28.98 29.31 28.07 27.19 26.93 27.24 28.25
40.38 39.02 37.87 37.16 37.42 35.78 35.52 34.20 33.81 33.56 33.21 32.99 32.80 33.59 35.46 36.08 33.66 33.49 33.30 33.16 34.36 32.65 28.56 27.25 27.01 28.84 29.06 29.54 30.77 33.74 34.62 34.36 32.78 32.56 31.30 30.43 29.48 29.30 29.21 29.19 29.00 28.46 28.99
40.31 39.26 38.32 37.58 37.07 35.84 35.54 34.10 33.37 33.23 32.81 32.88 33.25 33.74 34.25 33.29 32.65 32.49 32.20 31.83 30.07 28.42 28.04 26.79 27.64 28.80 29.36 29.46 30.75 33.62 33.30 32.05 31.15 31.29 31.29 30.81 30.27 29.82 28.40 27.43 27.78 28.78 28.55

GFSGL_sfc_wetblb_156.txt.gz
Wetbulb
54.31 54.36 54.01 54.07 53.92 53.78 53.23 53.63 54.23 54.08 54.35 54.73 56.02 58.06 57.65 57.27 56.98 56.56 56.18 55.29 53.76 52.45 51.86 51.01 49.84 50.08 49.12 49.19 49.15 49.12 48.68 48.21 45.29 42.57 42.56 41.75 42.32 43.71 45.03 44.70 45.19 43.37 45.64
53.56 53.20 52.90 53.07 52.99 52.48 52.62 53.19 53.77 53.09 53.33 53.47 54.70 56.00 56.71 56.62 55.98 54.98 54.24 53.39 52.38 51.59 51.47 50.75 49.49 50.25 49.16 49.43 49.41 48.67 48.53 48.78 48.16 43.62 42.23 41.60 41.96 42.32 42.40 41.50 42.65 42.61 41.49
52.71 52.31 52.15 51.84 51.69 51.50 51.69 52.50 53.11 52.97 52.81 52.78 53.48 53.85 54.51 54.37 53.53 53.45 52.91 52.22 51.20 50.99 51.06 50.19 49.43 49.70 48.78 48.71 48.17 47.50 47.04 47.61 46.62 45.51 41.14 41.90 41.99 41.28 39.98 40.07 40.20 40.30 42.01
52.11 51.56 51.05 50.88 49.90 49.57 49.75 50.07 51.16 52.32 52.05 52.03 52.11 52.40 52.79 52.64 52.36 51.96 51.30 50.68 50.58 50.52 50.50 50.47 50.32 49.71 48.42 47.47 46.91 45.69 45.28 44.50 43.65 42.64 40.42 39.80 40.21 38.92 38.76 37.23 36.71 35.77 35.67
50.70 50.30 49.13 48.22 47.77 47.45 47.44 47.57 48.51 49.71 50.81 51.58 51.51 51.63 51.84 51.65 51.47 50.75 50.80 50.51 50.18 49.74 49.31 49.05 48.75 50.39 51.00 48.68 45.68 43.50 42.97 41.41 40.62 39.78 38.67 38.11 37.02 36.85 35.91 36.00 35.60 34.93 34.32
49.64 47.73 47.31 47.02 46.44 46.14 45.99 46.03 46.56 47.40 48.45 49.60 50.28 51.25 51.66 52.80 53.80 52.76 50.69 48.67 47.72 47.00 46.48 48.35 50.37 50.64 49.70 48.75 47.42 46.04 43.26 40.16 38.48 37.90 35.95 34.89 32.92 32.89 32.95 32.48 32.06 31.76 31.12
48.09 47.21 46.66 46.67 46.00 45.67 45.85 45.63 44.86 45.50 46.93 47.38 48.88 50.56 50.99 52.22 53.66 52.38 49.75 46.48 46.03 46.16 46.12 45.58 45.81 46.68 44.40 44.59 48.13 47.45 46.76 46.05 42.31 35.20 32.63 32.15 31.73 32.03 31.76 31.06 30.83 30.45 30.33
47.68 47.01 46.58 46.17 45.15 45.00 44.49 43.70 42.96 43.26 43.90 45.47 46.15 47.41 48.51 49.67 50.84 49.85 47.28 42.75 41.53 41.17 41.36 40.92 40.21 38.61 39.69 38.57 36.12 35.19 35.09 35.32 36.09 36.62 33.93 33.09 33.58 33.30 33.09 32.91 31.50 30.57 30.98
47.44 46.69 46.22 45.56 44.47 44.02 42.47 41.17 40.67 40.61 42.28 42.45 43.36 43.95 44.40 44.86 48.54 47.24 42.45 39.56 38.09 37.60 39.28 40.17 40.61 40.59 44.97 43.45 35.86 36.02 35.95 37.29 43.49 43.74 42.61 42.88 42.19 41.58 36.60 31.88 30.59 30.39 29.62
47.71 47.08 46.41 45.32 44.33 42.26 38.30 37.38 36.72 37.39 37.76 40.79 40.01 41.27 45.96 42.01 47.29 45.81 40.38 38.18 35.86 36.61 36.55 39.11 45.43 42.08 44.51 42.51 34.83 34.50 33.65 34.11 34.29 34.33 33.52 37.08 39.12 39.82 39.87 34.48 30.81 29.47 29.21
48.59 47.23 45.50 44.31 42.51 39.15 36.86 36.33 36.36 36.35 35.78 35.57 36.23 36.67 38.73 40.91 42.84 45.38 43.72 36.50 36.30 35.92 35.83 36.48 38.98 44.81 44.44 43.26 39.87 34.71 35.38 35.94 37.70 33.46 35.14 35.47 35.91 36.29 37.23 36.18 36.06 35.08 32.57
47.88 46.01 43.77 42.20 41.47 38.59 37.22 35.16 35.35 34.69 33.82 33.19 33.79 34.08 35.75 38.72 44.92 44.96 44.21 42.16 41.04 35.34 34.99 35.91 39.01 43.08 42.82 43.23 42.19 43.82 43.01 40.18 35.72 35.04 34.21 33.77 33.95 34.28 34.97 35.44 35.96 35.98 35.70
46.68 44.53 42.36 40.54 38.05 37.38 36.36 34.45 34.06 33.21 32.83 32.40 33.38 33.06 33.94 35.86 37.60 44.76 44.33 43.72 42.79 36.62 36.52 41.10 42.24 40.68 40.41 38.98 42.56 40.94 38.60 33.41 31.87 30.92 32.38 32.64 33.59 34.40 34.10 34.89 35.14 33.75 34.09
45.64 43.27 41.02 37.73 35.87 35.42 35.67 35.21 34.12 32.32 31.48 32.25 32.42 32.27 33.01 33.98 35.47 36.59 38.31 39.49 43.14 39.86 40.58 36.11 37.83 38.30 39.03 37.35 34.54 34.41 33.42 33.12 32.56 31.57 31.97 34.41 35.38 34.67 32.62 33.60 32.03 32.74 31.62
44.79 42.33 40.41 39.38 36.01 34.59 35.05 34.60 34.24 32.15 34.15 32.15 31.53 33.09 33.48 33.19 35.14 39.54 38.53 36.14 35.30 37.16 33.84 31.61 30.19 29.58 29.48 29.75 30.01 30.87 31.16 31.22 30.71 31.13 31.45 31.25 31.86 32.52 32.26 33.23 32.54 31.45 30.45
43.22 41.73 40.21 37.21 35.96 35.50 34.84 33.95 39.74 38.86 40.65 39.60 39.08 35.93 35.73 40.46 43.80 44.18 43.49 42.20 42.42 40.35 32.64 29.78 29.24 29.14 28.80 28.59 28.52 28.38 29.07 31.44 30.37 30.35 29.70 29.60 29.96 30.42 31.23 33.78 34.81 31.37 29.17
43.91 41.36 40.35 37.78 35.78 34.30 34.52 34.16 32.99 38.22 42.43 41.93 41.51 41.29 41.21 42.75 44.18 43.94 43.48 42.78 42.75 37.45 30.57 29.59 29.26 29.11 28.73 28.65 28.29 28.18 28.40 29.09 29.43 29.62 29.30 32.12 33.07 33.11 33.95 32.17 31.40 31.85 30.01
43.06 43.80 39.62 37.45 36.47 35.22 34.78 34.05 34.47 35.06 33.99 34.44 42.28 41.64 43.01 43.87 43.86 43.52 43.18 41.70 36.68 36.27 32.52 29.25 29.20 29.39 29.13 28.76 28.70 28.93 29.09 29.68 29.59 32.42 32.21 32.68 31.97 32.11 30.66 30.57 29.74 29.17 29.75
42.91 41.27 39.07 37.89 36.68 36.26 34.32 33.48 33.71 33.72 33.65 33.49 35.00 41.17 42.85 44.33 44.31 44.01 43.16 35.09 32.95 34.81 33.08 29.96 32.81 30.17 29.02 28.71 28.83 29.64 29.60 28.97 29.00 30.16 29.47 28.77 30.84 30.60 29.42 29.25 29.66 31.31 31.55
42.60 42.23 40.28 37.20 37.10 34.78 34.25 33.76 32.71 32.83 32.77 32.61 33.79 34.51 36.82 40.08 37.95 37.15 36.40 35.22 34.14 35.67 33.29 31.06 33.34 29.88 29.23 28.90 29.06 29.20 28.68 28.67 28.39 28.34 28.59 28.25 28.25 29.74 30.83 30.88 29.77 28.22 28.94
41.68 40.93 40.87 37.61 36.47 35.63 35.00 34.32 33.68 32.79 32.36 31.66 32.72 35.39 40.58 36.50 35.99 35.64 35.33 35.48 34.03 35.55 32.11 33.51 33.06 29.38 29.17 29.09 28.88 28.88 28.29 28.28 28.51 29.71 31.69 28.93 31.45 31.05 29.18 28.05 27.51 27.63 29.73
40.91 40.09 38.50 37.81 36.38 35.52 34.96 34.52 33.54 32.79 32.28 31.83 31.60 35.05 42.86 34.74 35.76 35.63 35.60 35.66 36.69 35.77 33.50 34.67 31.30 29.20 28.08 27.90 29.11 26.88 27.00 29.46 31.88 31.44 29.71 31.09 28.59 27.57 27.56 27.81 28.33 28.48 28.73
40.49 38.94 37.73 36.80 36.45 37.64 35.72 33.95 33.06 32.59 32.15 31.97 32.19 34.37 38.21 34.75 34.59 34.59 34.91 34.53 35.22 33.83 33.40 32.91 28.40 28.43 29.08 29.08 29.55 30.10 29.34 28.63 30.36 30.75 29.18 27.57 27.25 28.72 29.31 28.33 27.48 26.26 26.32
40.00 38.59 37.17 36.23 36.07 35.35 34.13 33.45 32.96 33.88 32.04 31.94 32.57 33.73 36.53 35.22 34.50 33.88 33.49 33.85 34.03 32.20 30.42 30.93 28.09 28.42 28.51 28.91 29.51 30.05 31.90 30.47 31.70 29.91 29.59 29.53 29.19 29.29 29.09 28.02 26.94 27.76 27.47
39.70 38.33 37.19 36.06 36.60 34.74 34.58 33.12 32.89 32.78 32.29 32.07 32.10 32.87 34.53 34.30 33.08 33.11 32.64 32.45 31.28 29.48 28.39 27.73 27.60 28.84 28.95 29.15 29.69 31.40 34.50 34.39 31.15 32.07 30.73 30.29 28.04 27.59 28.55 26.85 26.82 27.04 27.48
39.49 38.37 37.53 36.64 36.16 35.02 34.71 33.44 32.77 32.55 32.05 31.95 32.20 32.29 33.84 33.72 32.71 32.33 31.81 31.45 29.97 28.47 27.94 27.15 27.96 28.63 28.92 29.04 30.16 33.26 34.00 32.73 31.15 31.23 30.87 29.03 28.03 27.51 28.00 27.96 27.95 28.29 27.46

GFSGL_sfc_wetblb_159.txt.gz
Wetbulb
55.47 55.60 55.93 55.32 55.14 54.65 54.41 54.34 54.49 55.48 55.75 56.15 57.11 57.73 58.95 58.47 59.23 59.22 58.06 57.25 54.95 53.39 53.08 52.15 51.02 51.62 50.90 50.82 50.32 51.15 51.25 51.70 49.27 45.49 47.07 44.59 45.04 48.13 45.80 47.03 46.17 45.90 48.41
54.45 54.46 54.16 54.34 53.74 53.64 53.87 54.24 54.43 53.93 53.84 54.29 55.69 57.11 58.02 57.19 57.95 56.88 55.79 55.10 53.61 52.88 52.29 51.86 50.65 51.44 50.31 50.91 51.51 51.69 51.04 50.26 48.36 44.75 43.64 43.14 43.15 44.22 44.07 42.86 42.98 42.88 44.07
53.68 53.96 53.05 52.94 52.47 52.76 53.86 53.31 53.46 53.28 53.19 53.53 54.81 55.59 55.73 55.56 55.24 55.03 54.41 53.99 53.49 53.09 52.52 51.43 50.39 50.35 49.84 49.80 49.90 48.95 48.79 48.81 48.61 46.96 42.92 43.36 43.26 43.01 41.26 41.17 41.27 42.12 43.18
53.03 52.81 51.71 50.99 50.39 50.41 50.77 51.14 52.55 52.57 52.56 52.57 53.12 53.80 53.67 53.43 53.29 53.21 52.57 51.76 51.68 51.56 51.28 51.04 50.92 50.65 49.88 49.49 48.70 47.57 47.14 46.16 45.75 44.23 42.02 41.44 41.91 40.53 41.25 39.29 38.90 41.24 39.77
51.92 50.99 49.08 48.65 49.08 49.45 48.62 49.24 50.08 50.98 51.71 52.39 52.22 52.29 52.43 52.39 52.30 51.63 51.71 51.06 50.57 50.00 50.24 50.39 50.41 51.43 51.89 50.16 47.14 45.48 45.14 43.72 43.10 41.87 40.24 39.68 39.35 40.18 40.38 39.91 39.22 39.87 40.84
50.66 48.74 48.30 48.46 48.55 48.99 48.51 47.73 48.47 49.29 50.41 51.78 52.12 52.49 52.16 52.77 53.69 52.58 50.70 49.20 48.93 48.76 49.03 50.15 50.85 51.16 50.69 50.13 48.60 46.79 44.26 41.90 41.11 41.77 39.82 39.12 37.44 38.93 39.87 40.38 40.05 39.31 38.38
49.06 47.99 47.90 47.79 47.22 47.17 47.52 47.19 47.07 47.46 48.99 49.88 51.35 52.04 52.27 52.84 53.74 52.67 50.75 48.48 48.03 47.75 47.08 46.96 46.99 47.23 46.42 46.73 48.70 48.17 47.09 46.05 44.03 42.61 40.29 39.30 38.59 38.77 39.44 38.98 39.10 38.92 38.81
48.41 47.57 47.60 47.15 46.34 46.51 46.06 45.42 45.55 46.17 46.70 47.29 48.28 49.42 50.10 51.53 52.35 50.80 48.62 44.67 43.74 43.67 43.81 43.81 44.38 44.90 44.81 42.42 41.64 40.67 40.80 41.32 41.48 40.81 40.79 40.13 40.15 39.68 39.41 39.01 38.47 38.01 38.62
47.99 47.15 46.85 46.68 45.73 45.21 44.11 43.58 44.56 45.63 45.68 46.07 47.14 47.28 47.82 48.04 49.51 47.96 45.45 44.85 44.69 44.61 44.98 45.06 44.74 44.73 44.94 43.41 41.58 41.02 41.28 41.79 44.12 43.80 43.36 43.41 42.63 40.96 39.53 39.30 37.09 37.22 36.23
48.13 47.39 46.75 46.54 45.21 43.42 43.54 42.49 42.57 44.19 44.00 45.37 45.56 47.10 47.95 46.92 47.60 46.59 44.97 44.26 43.20 43.34 44.97 45.49 45.92 45.28 45.06 42.89 41.77 41.50 40.53 40.94 41.11 40.92 41.44 41.15 41.60 41.73 40.25 38.62 37.75 35.26 34.93
48.71 47.34 46.22 45.69 43.64 43.57 43.09 43.57 43.65 43.50 43.36 43.45 43.47 44.48 45.41 46.60 46.13 45.73 45.10 43.23 42.41 42.22 42.64 43.29 44.43 44.76 44.17 42.62 41.24 41.45 41.29 40.92 40.20 39.53 39.02 39.09 39.60 39.89 39.99 38.36 39.02 37.81 35.63
47.97 46.32 44.87 43.43 42.47 42.97 42.55 41.54 41.70 42.20 41.59 41.25 41.83 42.10 43.80 45.41 46.31 45.84 44.83 43.83 43.58 41.85 41.28 42.58 43.22 43.69 44.60 44.42 43.07 43.59 43.75 40.89 40.00 39.08 38.51 37.91 38.13 38.40 39.17 39.59 39.71 39.47 39.71
47.00 44.87 43.71 42.32 42.32 42.22 41.54 40.35 39.62 40.88 40.60 39.95 40.25 40.60 40.93 42.73 44.85 45.86 45.24 44.73 44.39 41.52 42.36 42.61 41.92 42.42 42.43 42.81 42.06 40.97 39.21 39.03 38.05 37.13 36.67 36.94 37.76 38.39 39.28 39.32 39.58 39.41 39.41
45.90 43.78 41.86 40.63 40.83 41.08 41.34 41.23 40.01 39.65 39.10 38.74 38.77 39.14 39.47 40.82 42.24 43.37 43.40 44.23 44.34 42.81 40.91 40.31 40.47 40.32 39.89 38.92 38.25 38.78 38.80 38.60 37.25 36.75 37.06 38.27 39.15 38.74 37.94 38.36 37.19 37.37 36.50
45.54 42.96 41.50 42.32 40.89 40.35 41.16 40.68 40.16 40.15 40.56 38.87 39.07 39.51 39.53 39.39 40.89 42.58 42.26 41.30 40.64 39.81 38.03 36.89 36.25 35.90 35.54 35.61 35.75 36.03 36.74 37.00 36.41 36.93 36.60 36.19 36.07 36.33 36.20 37.30 36.40 35.87 34.29
44.27 42.55 41.88 40.45 40.34 40.22 39.49 38.66 40.01 40.19 40.89 40.19 40.58 40.71 40.98 42.73 44.39 43.98 43.10 42.60 41.93 40.26 36.95 35.74 35.07 35.25 34.84 34.75 34.67 34.77 35.74 35.59 35.85 36.05 35.93 35.39 33.24 32.82 34.06 35.10 34.64 34.39 32.86
45.04 43.37 42.10 40.80 40.00 38.83 38.60 38.41 37.44 40.43 41.66 41.66 42.36 42.78 43.83 44.87 44.96 44.07 43.47 43.22 41.82 39.31 36.72 35.98 35.53 35.42 34.82 34.69 34.71 34.83 34.56 35.46 35.87 35.19 33.97 33.69 34.35 33.88 32.94 32.75 32.99 33.18 32.53
46.06 45.32 42.52 41.18 40.49 39.74 39.15 38.72 39.28 39.36 38.77 39.54 42.11 42.61 44.44 45.04 44.58 43.86 43.59 43.03 40.12 38.37 36.90 36.28 35.77 35.38 35.08 34.86 34.78 34.87 35.52 35.74 35.29 33.46 32.62 32.66 31.61 31.03 30.46 31.25 32.28 32.01 32.22
45.38 44.10 42.79 41.70 40.66 40.29 39.22 38.16 38.77 39.07 39.03 39.67 40.94 42.27 44.27 44.80 44.39 43.93 43.22 40.52 39.66 38.79 37.54 36.31 36.38 35.58 35.21 35.16 35.05 35.42 35.12 34.88 34.73 34.30 34.15 33.54 32.52 31.44 30.21 30.90 31.27 31.08 31.28
45.68 44.30 43.00 41.22 40.53 39.10 38.60 38.02 37.89 38.22 38.25 39.35 40.62 40.52 42.84 43.83 41.80 41.58 40.89 39.78 39.55 39.51 37.97 36.71 36.63 35.76 35.46 35.36 35.26 35.19 34.80 34.40 34.20 34.30 33.76 33.32 32.88 31.87 31.32 30.85 30.98 30.38 30.53
45.20 43.61 42.97 41.43 40.42 39.53 38.98 38.42 38.30 37.98 37.92 38.48 39.84 40.16 42.43 42.36 41.47 41.44 40.96 40.28 39.67 39.39 38.21 37.67 36.97 35.91 35.52 35.28 35.15 34.87 34.27 33.87 33.67 33.18 33.21 32.23 30.94 30.61 31.07 31.31 30.60 30.49 30.35
44.51 43.58 42.20 41.69 40.31 39.28 39.25 38.90 38.08 37.84 37.49 37.53 37.98 39.66 42.76 40.60 41.24 41.15 41.15 40.70 40.07 39.69 39.15 38.80 37.11 36.16 35.80 35.54 35.06 34.53 33.72 32.89 33.58 32.69 32.24 31.41 30.67 30.60 30.43 29.11 29.79 30.07 29.98
44.15 42.56 41.87 40.91 40.39 40.32 39.09 38.41 37.86 37.71 37.25 37.49 37.55 38.91 42.08 39.85 40.14 40.49 40.67 40.99 40.26 38.77 38.53 37.90 36.17 34.90 35.20 35.17 35.38 34.69 33.11 33.62 33.97 33.46 31.96 31.28 30.10 29.08 29.54 28.88 29.58 29.43 29.27
43.59 42.50 41.56 40.33 39.90 39.46 38.40 37.83 37.67 37.28 37.19 36.86 36.94 38.52 40.90 40.04 39.82 39.71 40.07 39.89 39.18 37.86 37.06 35.98 35.49 34.85 34.42 34.60 34.83 34.75 34.99 34.76 34.54 33.61 32.39 31.13 30.34 30.31 30.19 29.79 29.63 29.48 29.44
42.99 42.09 41.02 40.02 40.09 38.80 38.17 37.57 37.22 37.06 36.57 36.52 36.63 37.95 40.01 39.40 38.96 38.91 38.94 38.64 37.84 36.54 35.17 34.88 34.89 34.46 33.85 33.40 33.87 34.42 34.74 33.94 33.59 32.62 32.80 31.17 30.55 30.48 30.29 29.99 29.64 29.37 29.58
42.43 41.51 40.78 40.36 39.67 38.70 38.34 37.18 36.87 36.56 36.01 35.99 36.65 37.64 39.14 39.19 38.62 38.17 37.58 37.00 35.92 34.93 34.13 34.06 34.02 33.54 33.19 33.48 34.14 34.56 34.71 33.10 32.08 31.61 32.63 32.06 30.94 30.29 30.33 29.97 29.77 29.37 28.61

GFSGL_sfc_wetblb_162.txt.gz
Wetbulb
58.47 58.52 57.79 57.68 57.47 57.50 57.27 56.55 56.76 57.43 57.33 57.60 58.89 59.51 59.09 60.59 61.56 61.03 59.90 58.63 57.19 55.91 55.09 53.97 52.39 52.66 52.38 52.56 52.40 53.11 52.75 53.34 51.73 50.39 50.77 49.64 48.62 49.59 47.69 47.66 47.54 49.08 50.37
56.86 56.72 55.82 55.81 56.22 56.15 56.02 56.20 57.40 56.99 55.96 55.42 56.66 57.85 57.97 59.82 60.81 59.77 58.51 56.64 54.20 53.82 52.66 52.21 51.79 52.64 51.33 51.55 51.79 51.46 51.77 52.47 50.40 46.62 44.70 44.30 44.46 46.03 45.39 43.87 43.28 43.94 45.51
55.85 56.89 56.17 54.86 54.95 54.90 55.17 55.43 54.95 54.48 54.43 54.68 55.71 56.51 58.07 57.83 57.38 57.25 55.69 54.15 53.63 53.04 52.88 52.63 52.09 51.53 50.43 50.72 51.00 50.70 50.86 50.55 50.02 46.83 43.75 44.41 43.81 43.96 42.06 42.12 42.13 42.40 43.53
55.41 55.27 53.70 52.98 53.15 54.37 55.03 53.17 53.60 54.22 53.16 53.47 54.14 54.27 54.62 54.87 54.57 54.28 53.96 53.50 53.32 53.02 52.68 52.26 51.93 51.70 50.58 50.48 50.32 49.55 49.01 48.24 48.25 46.10 43.69 42.57 42.59 41.95 42.31 40.19 39.14 40.86 41.60
54.67 53.22 51.49 51.48 52.64 51.94 51.86 51.63 52.87 52.12 53.17 53.42 52.97 53.16 53.26 53.38 53.48 52.68 52.47 52.14 51.37 51.02 51.43 51.50 51.31 51.98 52.86 51.05 48.68 47.82 47.73 46.38 45.48 43.62 41.63 40.42 39.35 39.04 39.69 42.42 42.90 43.99 43.50
53.74 51.91 50.67 50.41 52.09 51.40 50.81 50.69 51.13 51.33 52.12 53.37 52.82 52.91 52.88 53.59 54.39 53.60 51.98 50.70 50.63 50.65 50.49 51.25 52.42 52.75 52.25 51.41 49.72 48.14 47.13 43.37 41.84 42.15 43.61 44.32 42.75 43.37 44.01 44.27 44.18 42.48 41.25
52.17 51.80 50.91 50.22 51.90 51.00 50.20 49.89 49.68 50.13 51.32 51.78 52.35 52.80 52.43 53.12 54.17 53.39 51.91 49.75 48.72 48.30 47.76 47.30 47.22 48.25 48.64 48.13 49.04 48.36 47.30 46.72 46.69 46.68 44.46 43.68 42.87 43.27 43.76 42.97 42.92 42.12 41.65
50.86 50.67 50.28 49.69 49.67 49.64 49.45 48.05 47.75 48.74 48.73 49.57 50.26 51.26 51.39 51.88 52.78 51.79 49.80 46.16 45.11 44.95 45.06 45.60 46.99 47.27 46.87 46.08 45.08 44.12 43.97 43.95 43.95 43.67 43.57 42.62 42.32 42.27 41.87 41.41 41.25 41.28 41.74
50.08 50.16 49.54 49.12 48.24 48.10 48.08 47.68 47.58 47.53 47.76 48.40 49.81 50.12 49.41 49.58 50.76 49.93 48.12 47.07 46.93 47.09 48.21 48.67 47.80 46.19 45.35 45.41 44.96 43.78 43.38 43.43 45.00 45.02 44.35 43.09 42.10 41.22 40.64 42.35 39.42 39.02 37.70
50.04 49.32 49.41 49.36 47.96 47.06 46.69 47.21 47.46 47.48 47.42 49.34 49.97 50.79 49.96 48.74 49.02 49.42 50.10 49.26 47.92 47.30 47.48 47.18 46.80 46.36 45.15 44.44 44.67 44.00 42.56 43.00 43.17 43.26 42.57 42.47 42.63 41.55 39.67 40.68 39.76 36.92 35.99
50.38 49.14 48.68 48.35 47.69 48.21 47.80 48.42 47.73 47.68 48.63 49.24 49.19 49.69 49.45 48.92 47.82 48.19 49.25 48.17 46.85 45.89 45.28 45.00 45.25 44.63 43.98 43.49 43.45 44.35 43.16 43.64 41.89 42.16 41.80 41.71 41.66 41.41 41.55 41.42 40.70 38.73 35.77
49.37 48.36 48.09 46.86 48.26 50.03 49.89 49.57 49.61 49.14 48.24 47.80 47.50 47.29 48.01 47.92 47.11 46.74 46.87 46.74 46.41 44.73 43.87 44.60 44.92 45.04 44.57 44.13 44.16 44.12 43.11 42.20 42.36 42.08 41.30 40.14 39.64 39.60 39.87 39.59 39.52 40.01 40.13
48.25 47.36 46.43 46.07 50.05 49.80 49.02 48.47 47.90 48.07 47.25 46.07 45.14 44.51 44.61 45.96 46.34 46.22 46.00 45.60 45.23 44.17 44.31 44.02 44.09 44.07 43.26 42.71 42.20 41.63 41.05 42.09 41.36 40.24 39.12 38.66 39.02 39.37 39.57 38.89 39.82 40.19 40.12
47.63 46.68 45.76 46.40 48.91 49.21 48.95 48.53 47.56 46.72 45.66 44.50 43.48 42.94 43.76 44.33 44.40 45.14 45.03 45.08 44.23 42.52 42.08 41.81 41.74 41.54 41.10 40.17 40.39 40.58 40.77 40.25 39.31 38.88 38.68 38.58 38.16 37.37 36.80 38.04 37.16 37.51 36.70
47.06 45.63 45.72 46.73 48.66 47.91 48.21 47.98 47.42 47.22 46.01 44.12 43.71 43.41 42.78 42.51 43.70 45.24 45.00 44.02 42.76 42.18 40.97 40.56 39.74 39.14 38.38 38.33 38.46 38.63 39.34 39.40 38.42 38.60 37.99 36.49 35.36 35.53 35.60 37.14 36.19 35.70 34.62
45.49 44.94 45.99 47.80 48.37 47.92 46.15 43.78 42.88 43.46 42.98 44.45 45.20 45.04 44.72 45.26 44.60 44.54 44.11 42.73 41.70 40.68 40.41 39.75 39.11 38.94 38.00 37.82 37.64 37.55 38.23 37.57 37.94 37.52 35.26 34.20 33.44 33.73 33.88 35.72 35.64 34.66 33.14
46.28 45.49 46.00 48.30 48.01 46.39 45.91 44.51 41.24 41.56 42.58 43.30 43.65 44.29 45.31 44.60 44.48 44.03 43.65 42.54 41.42 40.73 40.07 39.96 39.37 38.92 37.97 37.97 37.87 37.66 36.91 37.55 37.31 36.67 35.42 33.72 33.99 33.85 33.34 32.37 32.34 32.49 31.95
47.28 46.36 46.77 48.96 47.55 46.42 45.88 44.41 42.83 40.83 39.82 41.21 43.65 44.83 45.69 45.35 44.43 43.91 43.59 42.34 39.97 40.46 40.55 39.79 39.41 38.82 38.37 37.96 37.96 37.51 37.54 37.10 36.26 35.69 34.68 33.74 32.35 31.88 30.70 30.66 31.17 31.65 32.12
46.61 46.21 48.33 49.26 47.29 46.22 45.13 43.38 42.88 42.17 41.24 41.12 42.39 44.18 45.79 45.25 44.41 44.22 43.74 43.62 42.51 41.18 40.41 39.61 40.25 39.07 38.63 38.56 38.14 37.98 37.64 37.12 36.60 35.68 34.05 33.15 32.47 31.43 30.89 31.14 31.01 31.02 31.16
47.76 47.01 48.51 48.52 46.06 45.26 43.89 42.78 42.64 42.56 41.97 41.25 41.00 42.17 44.31 44.14 42.41 42.45 42.87 42.69 42.99 42.82 41.63 39.90 40.33 39.50 39.03 38.85 38.27 37.75 37.27 36.59 36.33 34.65 33.24 32.96 31.97 32.59 30.96 30.55 30.01 29.13 29.35
49.53 47.96 48.28 48.05 46.23 45.03 44.05 42.92 42.87 42.62 42.41 42.22 42.60 43.81 44.54 43.35 42.63 42.95 42.62 42.17 42.70 42.68 41.56 40.73 40.62 39.85 39.36 38.82 38.17 37.48 36.88 36.36 34.44 33.25 32.35 31.87 31.27 30.59 30.81 30.44 29.60 29.85 29.58
49.82 48.96 48.63 48.03 46.67 45.13 44.85 44.27 43.30 42.78 42.75 42.79 43.17 43.32 44.29 44.31 43.97 43.75 43.46 43.35 43.60 43.22 42.89 41.97 41.19 40.24 39.64 38.82 38.00 37.06 36.13 35.08 33.60 32.71 32.32 32.65 32.80 31.88 30.89 30.49 30.78 30.24 29.92
49.89 48.60 48.75 48.10 46.73 45.53 44.68 44.25 43.36 42.98 42.61 42.94 43.01 42.46 43.04 43.37 43.89 43.91 44.01 44.38 43.61 42.67 42.56 42.29 40.93 39.40 39.24 38.71 38.44 37.86 36.23 35.42 34.66 34.29 33.11 33.15 32.35 31.93 32.02 31.38 30.50 29.50 28.55
49.64 48.69 48.71 47.34 46.35 45.43 45.04 44.39 43.76 42.01 42.72 42.46 42.40 42.84 43.36 43.45 43.54 43.82 44.26 44.44 43.63 42.46 41.90 41.23 40.31 38.95 38.20 37.65 37.41 37.31 37.31 36.69 36.33 35.25 33.99 33.13 32.55 31.99 31.72 30.96 29.79 29.00 29.18
48.97 48.48 48.00 46.82 45.41 45.69 44.76 44.47 43.65 42.92 42.29 42.10 41.86 42.70 44.16 43.79 43.47 43.49 44.04 43.99 42.85 41.46 40.39 40.22 39.70 38.39 37.27 36.50 36.42 36.49 35.07 34.06 34.95 33.04 34.81 33.01 32.17 31.61 31.42 30.72 29.86 29.77 29.34
48.71 48.09 47.30 46.88 46.18 45.74 44.83 44.33 43.83 43.47 42.52 42.01 42.02 42.80 43.93 43.49 43.26 43.46 43.31 42.80 41.43 40.40 39.31 39.37 38.76 37.46 36.25 36.08 36.23 35.60 34.35 33.17 32.97 31.80 34.12 34.21 32.65 32.04 31.61 29.83 29.62 29.40 29.49

GFSGL_sfc_wetblb_165.txt.gz
Wetbulb
59.79 59.30 58.12 58.09 59.04 59.30 59.18 58.74 58.89 59.38 58.36 57.92 59.02 59.56 60.36 60.79 61.86 62.12 61.31 60.10 59.11 59.02 58.51 56.59 54.26 53.19 53.64 54.15 53.96 53.25 52.51 53.93 50.38 49.81 51.69 51.18 50.46 51.28 49.14 48.82 49.48 50.30 51.11
58.73 57.42 56.76 57.17 57.86 57.05 56.68 57.06 57.28 56.39 56.72 55.98 57.22 58.12 58.78 59.02 61.10 61.31 59.15 58.37 56.93 55.62 55.54 55.49 53.74 53.93 53.77 53.53 52.85 51.87 51.45 51.52 50.63 48.34 46.35 46.14 46.38 46.11 46.27 44.50 44.42 45.39 46.04
57.43 56.77 56.92 56.73 56.22 55.92 56.08 55.95 56.00 55.81 55.19 55.43 55.86 56.00 57.30 58.63 59.27 59.99 58.62 55.71 54.59 53.62 53.12 52.63 52.42 52.82 51.80 51.69 51.65 51.25 51.12 50.68 49.38 47.37 44.05 44.76 43.98 44.44 42.59 43.03 43.21 43.10 44.10
57.23 56.41 55.24 54.85 55.03 55.39 55.32 55.00 53.50 54.57 53.69 54.51 55.17 55.97 56.01 55.45 55.53 55.16 54.22 53.45 53.31 53.22 53.18 52.94 52.51 51.97 51.18 50.76 50.62 49.88 49.43 48.67 48.20 45.89 44.20 43.02 43.21 42.80 43.09 41.30 40.12 40.75 40.79
55.83 54.56 53.73 54.06 53.91 54.02 53.61 53.17 52.78 53.57 54.14 53.62 53.37 53.40 53.85 53.73 53.75 53.49 53.41 52.80 52.03 51.38 51.56 51.53 51.90 53.14 53.66 52.04 49.53 48.37 48.00 46.69 45.69 44.21 42.35 41.13 39.85 39.28 39.86 40.90 40.47 41.45 42.77
54.98 52.66 52.15 52.99 52.78 52.16 52.12 51.49 52.26 52.63 53.70 53.43 53.20 53.28 53.24 53.76 54.52 53.73 52.35 51.33 51.24 51.06 50.69 51.34 52.60 53.28 53.26 53.13 51.90 50.46 48.65 45.54 42.71 42.17 42.66 44.05 43.15 43.72 44.30 44.16 43.96 43.00 41.42
54.45 53.16 51.50 53.01 52.59 51.88 51.21 50.82 50.98 51.29 52.29 52.30 52.50 52.73 52.67 53.40 54.64 53.87 51.89 49.68 48.83 48.13 47.77 47.85 48.28 49.09 48.64 48.09 49.34 48.69 47.59 47.43 48.05 47.29 43.84 42.94 41.50 41.43 42.25 42.45 42.45 41.63 40.94
53.72 52.40 51.63 53.12 52.10 50.94 49.71 48.88 48.66 49.19 50.03 50.58 51.00 51.28 51.61 52.24 52.86 51.81 50.08 46.96 46.11 46.04 46.25 46.15 46.09 47.00 47.85 46.52 45.26 43.94 43.37 43.78 44.18 43.65 42.37 41.33 40.51 41.21 41.31 40.30 40.39 40.62 41.24
52.30 51.60 51.28 51.38 50.78 49.53 47.97 47.57 48.28 48.81 49.29 49.36 49.28 49.32 49.82 50.01 51.25 50.40 48.15 46.92 46.93 47.82 48.94 48.13 46.61 45.14 46.55 47.17 44.66 43.09 42.42 42.63 45.57 45.25 44.07 43.35 42.72 41.88 41.63 41.60 38.41 38.24 37.36
51.86 51.18 50.85 50.37 49.92 48.94 47.78 47.18 47.33 48.60 48.93 49.67 47.96 48.12 49.49 48.46 50.83 50.26 49.55 48.71 47.52 46.83 46.65 46.14 46.84 45.39 45.82 46.13 44.88 44.16 42.16 41.93 42.48 42.02 42.04 42.60 42.97 41.02 41.15 40.28 39.04 35.89 34.93
52.18 51.24 50.36 50.19 48.94 48.67 48.37 48.07 48.02 48.98 49.92 49.46 48.99 49.10 48.87 48.86 49.12 51.41 51.73 48.82 46.96 45.41 44.46 43.80 43.80 44.74 44.71 45.17 46.11 44.49 42.91 43.31 42.06 41.96 41.50 41.28 41.34 41.04 40.64 40.35 39.56 38.03 35.59
50.57 49.86 48.94 49.69 49.65 49.91 49.05 48.46 49.17 49.69 49.97 49.22 48.32 47.82 48.05 47.51 48.39 48.68 49.43 48.91 48.27 44.84 43.73 44.42 44.35 45.10 45.27 45.05 44.31 44.25 43.47 42.92 42.17 40.97 40.22 39.26 38.82 38.71 39.14 39.09 38.67 39.71 39.96
49.19 48.44 47.99 49.70 51.94 51.87 50.62 50.01 49.87 49.99 48.97 47.62 46.72 45.81 45.34 45.90 46.17 46.95 47.13 46.86 46.90 44.75 44.94 44.84 44.38 43.83 43.30 42.88 42.88 41.87 41.75 41.50 40.39 39.06 38.10 37.92 37.88 38.11 38.15 38.19 39.45 40.08 39.68
48.54 47.33 47.40 49.76 50.96 51.18 51.28 50.73 49.72 48.89 47.34 45.91 44.74 44.00 44.25 44.27 44.51 44.96 44.78 44.16 44.32 43.62 43.44 42.86 42.66 41.70 41.48 41.02 40.82 40.76 39.95 39.30 38.75 37.89 37.51 37.68 37.88 36.81 36.00 37.38 36.55 36.55 36.31
48.11 46.61 47.36 49.46 50.54 50.16 50.21 49.61 49.13 48.78 47.64 45.34 45.06 44.95 43.67 42.63 44.01 45.73 45.06 42.92 43.41 42.81 41.82 41.25 40.20 39.45 38.55 38.48 38.49 38.95 39.55 39.07 37.74 37.66 36.62 34.79 34.42 34.33 35.27 36.89 35.79 35.32 33.82
46.79 46.39 47.74 49.15 50.05 49.82 47.33 44.16 45.11 45.96 46.56 46.62 46.52 46.17 45.74 46.85 47.12 46.34 44.44 43.31 42.84 42.85 42.11 40.53 39.44 39.07 37.98 37.89 37.35 37.25 37.98 37.58 37.20 36.31 34.90 33.77 33.52 33.50 33.36 35.28 34.42 33.19 32.19
47.24 47.04 47.63 49.52 49.52 48.25 46.30 44.19 40.49 42.33 45.25 45.73 46.52 47.02 46.09 45.68 45.71 44.31 43.14 42.03 41.68 41.19 41.07 40.80 39.71 38.87 38.20 37.89 37.40 37.04 36.27 36.71 36.45 35.93 34.29 33.43 33.08 32.43 32.00 32.01 32.30 32.45 32.00
48.70 47.58 48.50 49.81 49.58 48.21 47.04 44.99 42.93 41.31 40.37 41.23 44.99 45.66 45.70 45.05 44.56 43.79 42.82 41.89 39.58 41.44 41.30 41.13 39.90 39.22 38.58 37.82 37.46 37.10 36.99 36.57 35.57 34.79 33.64 32.80 32.18 31.54 30.64 30.33 30.84 30.71 30.92
48.05 47.42 49.30 50.11 49.39 48.61 47.65 45.12 43.59 42.53 41.99 42.12 43.60 45.04 45.56 44.74 44.37 43.85 43.38 43.05 41.81 40.82 40.76 41.06 40.82 39.61 39.04 38.63 37.93 37.99 37.46 36.32 35.89 34.51 33.70 33.14 32.34 31.72 30.54 30.22 29.81 30.79 30.82
48.36 47.79 49.32 49.03 47.90 47.54 45.68 43.84 42.69 42.18 41.92 42.02 42.36 43.36 44.45 43.58 41.78 41.66 42.32 44.27 43.90 42.95 41.26 41.17 41.02 40.04 39.57 39.29 38.58 37.91 37.07 36.16 35.54 33.74 32.65 31.90 31.35 31.79 30.04 29.27 29.59 29.34 29.35
48.32 47.83 49.13 48.30 46.95 46.60 44.72 43.84 43.61 42.75 41.93 41.81 42.26 44.58 44.90 42.90 41.91 42.20 42.43 42.81 43.82 43.68 41.64 41.61 41.48 40.50 39.89 39.28 38.44 37.61 36.55 35.52 33.79 32.92 32.06 31.50 32.01 31.52 30.73 30.10 29.85 30.24 30.00
48.71 48.37 48.80 47.91 47.11 45.96 44.82 44.67 44.20 43.60 42.91 42.23 42.63 44.15 44.36 43.84 43.44 43.31 43.20 42.91 44.10 44.45 43.32 42.69 41.73 40.78 40.15 39.25 38.35 37.24 36.24 34.89 33.33 32.72 32.23 32.79 32.66 31.61 31.37 31.03 30.78 30.21 29.39
49.58 48.64 48.72 48.17 47.07 46.19 45.03 44.59 44.07 43.85 43.65 43.81 43.74 43.35 43.27 43.88 44.13 44.19 43.97 44.15 44.11 43.52 43.09 42.99 41.68 40.07 39.74 38.97 38.70 38.40 36.74 35.43 34.60 34.10 33.06 32.88 31.86 31.19 31.66 30.67 29.91 28.53 28.57
50.59 49.67 49.27 48.26 46.90 45.96 45.12 44.10 44.05 42.88 43.93 43.94 43.42 43.53 43.42 44.08 44.36 44.48 44.70 44.58 43.76 43.14 42.88 42.21 40.88 39.42 38.21 37.87 37.75 38.11 37.82 36.90 36.34 35.14 34.11 33.00 32.39 32.00 31.25 30.39 29.20 29.44 29.33
51.02 50.45 49.87 48.11 46.71 45.80 45.37 44.59 43.95 43.66 43.40 43.51 43.12 43.40 43.70 44.12 44.18 44.51 44.89 44.64 43.45 42.04 41.27 41.17 40.25 38.81 37.63 36.97 36.85 36.96 34.90 34.35 35.03 32.35 34.50 33.46 32.60 31.99 31.17 30.04 29.64 29.48 29.22
50.63 50.54 49.86 48.30 46.93 46.57 45.60 44.60 43.76 43.57 42.97 42.98 43.09 43.82 44.05 43.91 44.00 44.33 44.45 43.88 42.15 40.88 40.29 40.17 39.23 37.88 36.86 36.52 36.68 35.03 34.19 32.86 32.63 32.68 33.27 34.01 32.55 31.90 30.85 29.94 29.93 29.62 29.47